This site uses a module created by best online poker sites.

BSB police report for October 18, 2019

"10/16/2019","00:06","219CR0026149","SUSPICIOUS ACTIVITY","SUSPICIOUS ACTIVITY","700 BLK S MAIN","",""
"10/16/2019","00:21","219CR0026150","T/S","T/S","IDAHO ST AND GRANITE ST","",""
"10/16/2019","00:30","219CR0026151","SUSPICIOUS ACTIVITY","BURGLARY, RESIDENCE","2440 MOULTON ST","",""
"10/16/2019","00:48","219CR0026152","CITIZEN AID","CITIZEN AID","400 S CLARK ST","",""
"10/16/2019","00:52","219CR0026153","DISTURBANCE","CRIMINAL MISCHIEF","909 S COLORADO","ARREST(s) MADE",""
"10/16/2019","01:17","219CR0026154","BUSINESS CHECK","BUSINESS CHECK","531 S MONTANA","",""
"10/16/2019","01:24","219CR0026155","BUSINESS CHECK","BUSINESS CHECK","1370 HARRISON","",""
"10/16/2019","01:52","219CR0026156","SUSPICIOUS ACTIVITY","SUSPICIOUS ACTIVITY","1440 SCHLEY","",""
"10/16/2019","01:56","219CR0026157","SUSPICIOUS ACTIVITY","CRIMINAL CONTEMPT","IRON ST AND MAIN ST","ARREST(s) MADE",""
"10/16/2019","02:33","219CR0026158","SUSPICIOUS ACTIVITY","SUSPICIOUS ACTIVITY","ARGYLE AND THORNTON","",""
"10/16/2019","02:49","219CR0026159","MEDICAL - EMERGENCY","MEDICAL - EMERGENCY","2850 SILVER BOW BLVD","",""
"10/16/2019","03:49","219CR0026160","UNWANTED PERSON","UNWANTED PERSON","************","",""
"10/16/2019","04:51","219CR0026161","SUSPICIOUS ACTIVITY","SUSPICIOUS ACTIVITY","SILVER AND ALABAMA","",""
"10/16/2019","04:55","219CR0026162","ASSIST OTHER AGENCY","ASSIST OTHER AGENCY","I90 MM 240 EBND","",""
"10/16/2019","05:00","219CR0026163","SUSPICIOUS ACTIVITY","SUSPICIOUS ACTIVITY","2711 HARRISON AVE","",""
"10/16/2019","05:38","219CR0026164","SUSPICIOUS ACTIVITY","SUSPICIOUS ACTIVITY","531 S MONTANA","",""
"10/16/2019","05:44","219CR0026165","SUSPICIOUS ACTIVITY","SUSPICIOUS ACTIVITY","3700 HARRISON","",""
"10/16/2019","07:52","219CR0026166","MEDICAL - EMERGENCY","MEDICAL - EMERGENCY","100 GARDENS WAY RM 148","",""
"10/16/2019","07:53","219CR0026167","CIVIL PAPER SERVICE","CIVIL PAPER SERVICE","909 S COLORADO","",""
"10/16/2019","08:00","219CR0026168","CIVIL PAPER SERVICE","CIVIL PAPER SERVICE","436 S MAIN ST","",""
"10/16/2019","08:01","219CR0026169","T/S","NO LIABILITY INSURANCE IN EFF.","1100 BLK W SECOND ST","",""
"10/16/2019","08:04","219CR0026170","T/S","T/S","CONTINENTAL AND KEOKUK","",""
"10/16/2019","08:06","219CR0026171","CIVIL PAPER SERVICE","CIVIL PAPER SERVICE","502 W PARK","",""
"10/16/2019","08:12","219CR0026172","CIVIL PAPER SERVICE","CIVIL PAPER SERVICE","1818 GAYLORD","",""
"10/16/2019","08:13","219CR0026173","CIVIL PAPER SERVICE","CIVIL PAPER SERVICE","2645 GOODWIN","",""
"10/16/2019","08:14","219CR0026174","CIVIL PAPER SERVICE","CIVIL PAPER SERVICE","1900 MONROE","",""
"10/16/2019","08:14","219CR0026175","CIVIL PAPER SERVICE","CIVIL PAPER SERVICE","2028 STUART","",""
"10/16/2019","08:15","219CR0026176","SUSPICIOUS ACTIVITY","SUSPICIOUS ACTIVITY","220 CURTIS","",""
"10/16/2019","08:16","219CR0026177","THEFT","THEFT","616 1/2 E FRONT","",""
"10/16/2019","08:17","219CR0026178","SUSPICIOUS ACTIVITY","CRIMINAL CONTEMPT","SADDLE ROCK RD","ARREST(s) MADE",""
"10/16/2019","08:38","219CR0026179","ALL OTHER","ALL OTHER","401 S WYOMING BUTTE HIGH SCHOO","",""
"10/16/2019","08:38","219CR0026180","CIVIL PAPER SERVICE","CIVIL PAPER SERVICE","721 HOBSON #3","",""
"10/16/2019","08:48","219CR0026181","CIVIL PAPER SERVICE","CIVIL PAPER SERVICE","155 W QUARTZ","",""
"10/16/2019","08:52","219CR0026183","THEFT","THEFT FROM BUILDINGS","1110 HAYES AVE SENTRY STORAGE","",""
"10/16/2019","08:52","219CR0026182","CIVIL PAPER SERVICE","CIVIL PAPER SERVICE","401 W GRANITE #4","",""
"10/16/2019","09:05","219CR0026184","CIVIL PAPER SERVICE","CIVIL PAPER SERVICE","4134 WYNNE APT B","",""
"10/16/2019","09:21","219CR0026185","CIVIL PAPER SERVICE","CIVIL PAPER SERVICE","311 S JACKSON","",""
"10/16/2019","09:25","219CR0026186","THEFT","THEFT, ALL OTHERS","1821 LOWELL","",""
"10/16/2019","11:04","219CR0026187","STOLEN VEHICLE","STOLEN VEHICLE","ALABAMA AND SILVER","",""
"10/16/2019","11:18","219CR0026188","CIVIL PAPER SERVICE","CIVIL PAPER SERVICE","815 13TH ST","",""
"10/16/2019","11:24","219CR0026189","T/S","T/S","GRANITE AND ALASKA","",""
"10/16/2019","11:27","219CR0026190","CIVIL PAPER SERVICE","CIVIL PAPER SERVICE","2825 FARRAGUT PARK VIEW APTS","",""
"10/16/2019","11:45","219CR0026191","DETENTION BUSINESS","DETENTION BUSINESS","************","",""
"10/16/2019","12:00","219CR0026192","ALARM - MEDICAL","ALARM - MEDICAL","************","",""
"10/16/2019","12:07","219CR0026193","T/S","T/S","WALMART 3901 HARRISON","",""
"10/16/2019","12:08","219CR0026194","T/S","T/S","MAIN AND PLATINUM","",""
"10/16/2019","12:15","219CR0026195","LED BUSINESS","LED BUSINESS","RURAL PATROL","",""
"10/16/2019","12:16","219CR0026196","LED BUSINESS","LED BUSINESS","UPTOWN BUTTE","",""
"10/16/2019","12:19","219CR0026197","T/S","T/S","HARRISON AND GARLAND","",""
"10/16/2019","12:24","219CR0026198","CIVIL PAPER SERVICE","CIVIL PAPER SERVICE","225 N ALASKA","",""
"10/16/2019","12:40","219CR0026199","SUSPICIOUS ACTIVITY","SUSPICIOUS ACTIVITY","DEWEY BLVD AND LEXINGTON AVE","",""
"10/16/2019","12:43","219CR0026200","CIVIL PAPER SERVICE","CIVIL PAPER SERVICE","1228 RACOON WAY","",""
"10/16/2019","12:44","219CR0026201","T/S","T/S @ S ROCKER RD AND SANTA CLAUS RD","S ROCKER RD AND SANTA CLAUS RD","",""
"10/16/2019","12:54","219CR0026202","LED BUSINESS","LED BUSINESS","155 W QUARTZ","",""
"10/16/2019","13:00","219CR0026203","RESTRAINING ORDER VIOLATION","RESTRAINING ORDER VIOLATION","************","",""
"10/16/2019","13:08","219CR0026204","CIVIL PAPER SERVICE","CIVIL PAPER SERVICE","132 SHIRLEY WAY","",""
"10/16/2019","13:16","219CR0026205","MEDICAL - EMERGENCY","MEDICAL - EMERGENCY","206 NEVERSWEAT","",""
"10/16/2019","13:27","219CR0026206","PRIVACY IN COMMUNICATIONS","PRIVACY IN COMMUNICATION","","",""
"10/16/2019","13:36","219CR0026207","THEFT","THEFT","845 S WYOMING ST BSW","",""
"10/16/2019","13:37","219CR0026208","ALARM - MEDICAL","ALARM - MEDICAL","************","",""
"10/16/2019","13:48","219CR0026209","THEFT","CRIMINAL MISCHIEF","3751 WYNNE AVE","",""
"10/16/2019","14:03","219CR0026210","SUSPICIOUS ACTIVITY","SUSPICIOUS ACTIVITY","1100 ROW SILVERBOW HOMES","",""
"10/16/2019","14:16","219CR0026211","PARKING COMPLAINT","PARKING COMPLAINT","1322 CASEY","",""
"10/16/2019","14:30","219CR0026212","TRAFFIC","TRAFFIC","605 DESMET ST","",""
"10/16/2019","14:35","219CR0026213","DISTURBANCE","RESISTING ARREST","1322 CASEY","ARREST(s) MADE",""
"10/16/2019","14:52","219CR0026214","SUSPICIOUS ACTIVITY","SUSPICIOUS ACTIVITY","EMMA PARK","",""
"10/16/2019","14:52","219CR0026215","THEFT","THEFT","1808 REYNOLDS","",""
"10/16/2019","15:01","219CR0026216","THEFT","THEFT","2600 GRAND AVE","",""
"10/16/2019","15:03","219CR0026217","TRAFFIC","TRAFFIC","CINDERS BALL FIELD","",""
"10/16/2019","15:12","219CR0026218","ATL","ATL","ALUMINUM ST AND MONTANA ST","",""
"10/16/2019","15:12","219CR0026219","FIRE - OTHER","FIRE - OTHER","576 TERRA VERDE DRIVE","",""
"10/16/2019","15:14","219CR0026220","T/S","T/S","FIRST AND WYOMING ST","",""
"10/16/2019","15:21","219CR0026221","CITIZEN AID","CITIZEN AID","132 W BROADWAY","",""
"10/16/2019","15:31","219CR0026222","ALARM - FIRE","ALARM - FIRE","2611 PHILLIPS ST","",""
"10/16/2019","15:36","219CR0026223","DISTURBANCE","DISTURBANCE","1036 S UTAH","",""
"10/16/2019","15:36","219CR0026224","INFORMATION ONLY","INFORMATION ONLY","JEFFERSON COUNTY SHERIFF","",""
"10/16/2019","15:37","219CR0026225","SUSPICIOUS ACTIVITY","SUSPICIOUS ACTIVITY","2000 DEWEY BLVD DOTTYS CASINO","",""
"10/16/2019","15:54","219CR0026226","THEFT","THEFT","1501 OREGON AVE","",""
"10/16/2019","15:55","219CR0026227","SUSPICIOUS ACTIVITY","SUSPICIOUS ACTIVITY","CIVIC CENTER N PARKING LOT","",""
"10/16/2019","15:58","219CR0026228","WELFARE CHECK","WELFARE CHECK","3820 JUPITER LN #G7","",""
"10/16/2019","16:00","219CR0026229","THEFT","THEFT, ALL OTHERS","1 E BROADWAY #7","",""
"10/16/2019","16:02","219CR0026230","ACCIDENT","ACCIDENT","100 BLK W PARK","",""
"10/16/2019","16:07","219CR0026231","ALARM - MEDICAL","ALARM - MEDICAL","************","",""
"10/16/2019","16:08","219CR0026232","FIRE - OTHER","FIRE - OTHER","1300 BLK FARRELL ST","",""
"10/16/2019","16:11","219CR0026233","SUSPICIOUS ACTIVITY","SUSPICIOUS ACTIVITY","ST JAMES HOSPITAL PARKING LOT","",""
"10/16/2019","16:21","219CR0026234","DISTURBANCE","DISTURBANCE","1036 S UTAH ST","",""
"10/16/2019","16:38","219CR0026235","STOLEN VEHICLE","STOLEN VEHICLE","3745 HARRISON AVE","",""
"10/16/2019","16:54","219CR0026237","THEFT","THEFT, SHOPLIFT","3939 HARRISON","",""
"10/16/2019","16:54","219CR0026236","SUSPICIOUS ACTIVITY","SUSPICIOUS ACTIVITY","630 W IRON ST","",""
"10/16/2019","17:00","219CR0026238","STOLEN VEHICLE","STOLEN VEHICLE","225 N ALASKA","",""
"10/16/2019","17:09","219CR0026239","FIRE- GAS ODOR","FIRE- GAS ODOR","663 S WASHINGTON ST","",""
"10/16/2019","17:11","219CR0026240","CITIZEN AID","CITIZEN AID","1404 SILVERBOW HOMES","",""
"10/16/2019","17:41","219CR0026242","SUICIDE ATTEMPT/THREAT","SUICIDE ATTEMPT/THREAT","************","",""
"10/16/2019","17:41","219CR0026241","SUICIDE ATTEMPT/THREAT","SUICIDE ATTEMPT/THREAT","************","",""
"10/16/2019","18:31","219CR0026243","THEFT","THEFT, ALL OTHERS","2100 CORNELL QUALITY INN","",""
"10/16/2019","18:46","219CR0026244","RESTRAINING ORDER VIOLATION","VIOLATION OF PROTECTION ORDER","1111 W WOOLMAN ST","",""
"10/16/2019","18:54","219CR0026245","DISTURBANCE-NOISE","DISTURBANCE-NOISE","631 W GALENA ST APT 631","",""
"10/16/2019","19:19","219CR0026246","ABANDONED VEHICLE","ABANDONED VEHICLE","1022 S COLORADO","",""
"10/16/2019","19:25","219CR0026247","SUSPICIOUS ACTIVITY","SUSPICIOUS ACTIVITY","223 S JACKSON","",""
"10/16/2019","19:26","219CR0026248","FIRE - OTHER","FIRE - OTHER","ELM AND TEXAS","",""
"10/16/2019","19:31","219CR0026249","THEFT","THEFT","","",""
"10/16/2019","19:36","219CR0026250","T/S","T/S","MERCURY AND MONTANA","",""
"10/16/2019","19:50","219CR0026251","T/S","T/S","BONANZA FREEZE PARKING LOT","",""
"10/16/2019","20:10","219CR0026252","T/S","T/S","COBBAN AND HARRISON","",""
"10/16/2019","20:14","219CR0026253","T/S","T/S @ FRONT AND MISSOURI","FRONT AND MISSOURI","",""
"10/16/2019","20:40","219CR0026254","TRAFFIC","TRAFFIC","600 BLK OF GALENA","",""
"10/16/2019","20:50","219CR0026255","CITIZEN AID","CITIZEN AID","1404 SILVERBOW HOMES","",""
"10/16/2019","21:02","219CR0026256","SUSPICIOUS ACTIVITY","SUSPICIOUS ACTIVITY","405 E PARK ST","",""
"10/16/2019","21:12","219CR0026257","ALARM - BURGLARY","ALARM - BURGLARY","************","",""
"10/16/2019","21:27","219CR0026258","SUSPICIOUS ACTIVITY","SUSPICIOUS ACTIVITY","1916 S JACKSON","",""
"10/16/2019","21:40","219CR0026259","FRAUD","FRAUD","20 W GALENA RICHEST HILL CASIN","",""
"10/16/2019","22:23","219CR0026260","JUVENILE MISC","JUVENILE MISC","************","",""
"10/16/2019","22:29","219CR0026261","JUVENILE MISC","JUVENILE MISC","************","",""
"10/16/2019","22:34","219CR0026262","DISTURBANCE","DISTURBANCE","2314 WALNUT","",""
"10/16/2019","22:40","219CR0026263","SUSPICIOUS ACTIVITY","SUSPICIOUS ACTIVITY","1900 BLK S JACKSON","",""
"10/16/2019","22:49","219CR0026264","MEDICAL - EMERGENCY","MEDICAL - EMERGENCY","610 E PLATINUM","",""
"10/16/2019","22:51","219CR0026265","ASSIST OTHER AGENCY","ASSIST OTHER AGENCY","CONTINENTAL AND DEXTER","",""
"10/16/2019","22:58","219CR0026266","DISTURBANCE-NOISE","DISTURBANCE-NOISE","58 W PARK ST PARKING GARAGE","",""
"10/16/2019","22:59","219CR0026267","DISTURBANCE-NOISE","DISTURBANCE-NOISE","1342 SAGE STREET","",""
"10/16/2019","23:11","219CR0026268","OPEN BUILDING","OPEN BUILDING","THOMAS AND FLORAL","",""
"10/16/2019","23:37","219CR0026269","SUSPICIOUS ACTIVITY","SUSPICIOUS ACTIVITY","3301 BURLINGTON","",""
"10/16/2019","23:42","219CR0026270","HARASSMENT","HARASSMENT","212 S MONTANA","",""
"10/17/2019","00:19","219CR0026271","ALL OTHER","ALL OTHER","220 N WYOMING ST #220","",""
"10/17/2019","00:28","219CR0026272","MAN WITH A GUN","MAN WITH A GUN","************","",""
"10/17/2019","00:50","219CR0026274","ALARM - FIRE","ALARM - FIRE","220 GREEN ACRES DRIVE","",""
"10/17/2019","01:37","219CR0026275","MEDICAL - EMERGENCY","MEDICAL - EMERGENCY","130 CLOVER DRIVE","",""
"10/17/2019","01:45","219CR0026276","SUSPICIOUS ACTIVITY","SUSPICIOUS ACTIVITY","2711 HARRISON AVE","",""
"10/17/2019","01:57","219CR0026277","THEFT","THEFT, ALL OTHERS","1345 SUNSET","",""
"10/17/2019","02:49","219CR0026278","SUSPICIOUS ACTIVITY","SUSPICIOUS ACTIVITY","1375 HARRISON MET TAVERN","",""
"10/17/2019","03:59","219CR0026279","SUSPICIOUS ACTIVITY","SUSPICIOUS ACTIVITY","1515 OREGON AVE","",""
"10/17/2019","04:13","219CR0026280","ALARM - MEDICAL","ALARM - MEDICAL","************","",""
"10/17/2019","04:18","219CR0026281","SUSPICIOUS ACTIVITY","SUSPICIOUS ACTIVITY","910 EVANS ST","",""
"10/17/2019","04:33","219CR0026282","MEDICAL - EMERGENCY","MEDICAL - EMERGENCY","2900 ELM ST","",""
"10/17/2019","04:44","219CR0026283","SUSPICIOUS ACTIVITY","SUSPICIOUS ACTIVITY","ALUMINUM ST AND MONTANA ST","",""
"10/17/2019","05:18","219CR0026284","DISTURBANCE","PFMA STRANGULATION","2712 BAYARD","",""
"10/17/2019","05:35","219CR0026285","ALARM - FIRE","ALARM - FIRE","220 GREEN ACRE RD","",""
"10/17/2019","06:35","219CR0026286","SUSPICIOUS ACTIVITY","SUSPICIOUS ACTIVITY","2712 BAYARD","",""
"10/17/2019","06:51","219CR0026287","ABANDONED VEHICLE","ABANDONED VEHICLE","500 BLK W MERCURY","",""
"10/17/2019","07:14","219CR0026288","T/S","T/S @ MONTANA AND HOLLAND","MONTANA AND HOLLAND","",""
"10/17/2019","07:20","219CR0026289","ANIMAL COMPLAINT","ANIMAL COMPLAINT","2100 BLK PRINCETON","",""
"10/17/2019","07:44","219CR0026291","SUSPICIOUS ACTIVITY","SUSPICIOUS ACTIVITY","1810 ELM","",""
 

BSB police report for October 17, 2019

"10/16/2019","00:06","219CR0026149","SUSPICIOUS ACTIVITY","SUSPICIOUS ACTIVITY","700 BLK S MAIN","",""
"10/16/2019","00:21","219CR0026150","T/S","T/S","IDAHO ST AND GRANITE ST","",""
"10/16/2019","00:30","219CR0026151","SUSPICIOUS ACTIVITY","BURGLARY, RESIDENCE","2440 MOULTON ST","",""
"10/16/2019","00:48","219CR0026152","CITIZEN AID","CITIZEN AID","400 S CLARK ST","",""
"10/16/2019","00:52","219CR0026153","DISTURBANCE","CRIMINAL MISCHIEF","909 S COLORADO","ARREST(s) MADE",""
"10/16/2019","01:17","219CR0026154","BUSINESS CHECK","BUSINESS CHECK","531 S MONTANA","",""
"10/16/2019","01:24","219CR0026155","BUSINESS CHECK","BUSINESS CHECK","1370 HARRISON","",""
"10/16/2019","01:52","219CR0026156","SUSPICIOUS ACTIVITY","SUSPICIOUS ACTIVITY","1440 SCHLEY","",""
"10/16/2019","01:56","219CR0026157","SUSPICIOUS ACTIVITY","CRIMINAL CONTEMPT","IRON ST AND MAIN ST","ARREST(s) MADE",""
"10/16/2019","02:33","219CR0026158","SUSPICIOUS ACTIVITY","SUSPICIOUS ACTIVITY","ARGYLE AND THORNTON","",""
"10/16/2019","02:49","219CR0026159","MEDICAL - EMERGENCY","MEDICAL - EMERGENCY","2850 SILVER BOW BLVD","",""
"10/16/2019","03:49","219CR0026160","UNWANTED PERSON","UNWANTED PERSON","************","",""
"10/16/2019","04:51","219CR0026161","SUSPICIOUS ACTIVITY","SUSPICIOUS ACTIVITY","SILVER AND ALABAMA","",""
"10/16/2019","04:55","219CR0026162","ASSIST OTHER AGENCY","ASSIST OTHER AGENCY","I90 MM 240 EBND","",""
"10/16/2019","05:00","219CR0026163","SUSPICIOUS ACTIVITY","SUSPICIOUS ACTIVITY","2711 HARRISON AVE","",""
"10/16/2019","05:38","219CR0026164","SUSPICIOUS ACTIVITY","SUSPICIOUS ACTIVITY","531 S MONTANA","",""
"10/16/2019","05:44","219CR0026165","SUSPICIOUS ACTIVITY","SUSPICIOUS ACTIVITY","3700 HARRISON","",""
"10/16/2019","07:52","219CR0026166","MEDICAL - EMERGENCY","MEDICAL - EMERGENCY","100 GARDENS WAY RM 148","",""
"10/16/2019","07:53","219CR0026167","CIVIL PAPER SERVICE","CIVIL PAPER SERVICE","909 S COLORADO","",""
"10/16/2019","08:00","219CR0026168","CIVIL PAPER SERVICE","CIVIL PAPER SERVICE","436 S MAIN ST","",""
"10/16/2019","08:01","219CR0026169","T/S","NO LIABILITY INSURANCE IN EFF.","1100 BLK W SECOND ST","",""
"10/16/2019","08:04","219CR0026170","T/S","T/S","CONTINENTAL AND KEOKUK","",""
"10/16/2019","08:06","219CR0026171","CIVIL PAPER SERVICE","CIVIL PAPER SERVICE","502 W PARK","",""
"10/16/2019","08:12","219CR0026172","CIVIL PAPER SERVICE","CIVIL PAPER SERVICE","1818 GAYLORD","",""
"10/16/2019","08:13","219CR0026173","CIVIL PAPER SERVICE","CIVIL PAPER SERVICE","2645 GOODWIN","",""
"10/16/2019","08:14","219CR0026174","CIVIL PAPER SERVICE","CIVIL PAPER SERVICE","1900 MONROE","",""
"10/16/2019","08:14","219CR0026175","CIVIL PAPER SERVICE","CIVIL PAPER SERVICE","2028 STUART","",""
"10/16/2019","08:15","219CR0026176","SUSPICIOUS ACTIVITY","SUSPICIOUS ACTIVITY","220 CURTIS","",""
"10/16/2019","08:16","219CR0026177","THEFT","THEFT","616 1/2 E FRONT","",""
"10/16/2019","08:17","219CR0026178","SUSPICIOUS ACTIVITY","CRIMINAL CONTEMPT","SADDLE ROCK RD","ARREST(s) MADE",""
"10/16/2019","08:38","219CR0026179","ALL OTHER","ALL OTHER","401 S WYOMING BUTTE HIGH SCHOO","",""
"10/16/2019","08:38","219CR0026180","CIVIL PAPER SERVICE","CIVIL PAPER SERVICE","721 HOBSON #3","",""
"10/16/2019","08:48","219CR0026181","CIVIL PAPER SERVICE","CIVIL PAPER SERVICE","155 W QUARTZ","",""
"10/16/2019","08:52","219CR0026183","THEFT","THEFT FROM BUILDINGS","1110 HAYES AVE SENTRY STORAGE","",""
"10/16/2019","08:52","219CR0026182","CIVIL PAPER SERVICE","CIVIL PAPER SERVICE","401 W GRANITE #4","",""
"10/16/2019","09:05","219CR0026184","CIVIL PAPER SERVICE","CIVIL PAPER SERVICE","4134 WYNNE APT B","",""
"10/16/2019","09:21","219CR0026185","CIVIL PAPER SERVICE","CIVIL PAPER SERVICE","311 S JACKSON","",""
"10/16/2019","09:25","219CR0026186","THEFT","THEFT, ALL OTHERS","1821 LOWELL","",""
"10/16/2019","11:04","219CR0026187","STOLEN VEHICLE","STOLEN VEHICLE","ALABAMA AND SILVER","",""
"10/16/2019","11:18","219CR0026188","CIVIL PAPER SERVICE","CIVIL PAPER SERVICE","815 13TH ST","",""
"10/16/2019","11:24","219CR0026189","T/S","T/S","GRANITE AND ALASKA","",""
"10/16/2019","11:27","219CR0026190","CIVIL PAPER SERVICE","CIVIL PAPER SERVICE","2825 FARRAGUT PARK VIEW APTS","",""
"10/16/2019","11:45","219CR0026191","DETENTION BUSINESS","DETENTION BUSINESS","************","",""
"10/16/2019","12:00","219CR0026192","ALARM - MEDICAL","ALARM - MEDICAL","************","",""
"10/16/2019","12:07","219CR0026193","T/S","T/S","WALMART 3901 HARRISON","",""
"10/16/2019","12:08","219CR0026194","T/S","T/S","MAIN AND PLATINUM","",""
"10/16/2019","12:15","219CR0026195","LED BUSINESS","LED BUSINESS","RURAL PATROL","",""
"10/16/2019","12:16","219CR0026196","LED BUSINESS","LED BUSINESS","UPTOWN BUTTE","",""
"10/16/2019","12:19","219CR0026197","T/S","T/S","HARRISON AND GARLAND","",""
"10/16/2019","12:24","219CR0026198","CIVIL PAPER SERVICE","CIVIL PAPER SERVICE","225 N ALASKA","",""
"10/16/2019","12:40","219CR0026199","SUSPICIOUS ACTIVITY","SUSPICIOUS ACTIVITY","DEWEY BLVD AND LEXINGTON AVE","",""
"10/16/2019","12:43","219CR0026200","CIVIL PAPER SERVICE","CIVIL PAPER SERVICE","1228 RACOON WAY","",""
"10/16/2019","12:44","219CR0026201","T/S","T/S @ S ROCKER RD AND SANTA CLAUS RD","S ROCKER RD AND SANTA CLAUS RD","",""
"10/16/2019","12:54","219CR0026202","LED BUSINESS","LED BUSINESS","155 W QUARTZ","",""
"10/16/2019","13:00","219CR0026203","RESTRAINING ORDER VIOLATION","RESTRAINING ORDER VIOLATION","************","",""
"10/16/2019","13:08","219CR0026204","CIVIL PAPER SERVICE","CIVIL PAPER SERVICE","132 SHIRLEY WAY","",""
"10/16/2019","13:16","219CR0026205","MEDICAL - EMERGENCY","MEDICAL - EMERGENCY","206 NEVERSWEAT","",""
"10/16/2019","13:27","219CR0026206","PRIVACY IN COMMUNICATIONS","PRIVACY IN COMMUNICATION","","",""
"10/16/2019","13:36","219CR0026207","THEFT","THEFT","845 S WYOMING ST BSW","",""
"10/16/2019","13:37","219CR0026208","ALARM - MEDICAL","ALARM - MEDICAL","************","",""
"10/16/2019","13:48","219CR0026209","THEFT","CRIMINAL MISCHIEF","3751 WYNNE AVE","",""
"10/16/2019","14:03","219CR0026210","SUSPICIOUS ACTIVITY","SUSPICIOUS ACTIVITY","1100 ROW SILVERBOW HOMES","",""
"10/16/2019","14:16","219CR0026211","PARKING COMPLAINT","PARKING COMPLAINT","1322 CASEY","",""
"10/16/2019","14:30","219CR0026212","TRAFFIC","TRAFFIC","605 DESMET ST","",""
"10/16/2019","14:35","219CR0026213","DISTURBANCE","RESISTING ARREST","1322 CASEY","ARREST(s) MADE",""
"10/16/2019","14:52","219CR0026214","SUSPICIOUS ACTIVITY","SUSPICIOUS ACTIVITY","EMMA PARK","",""
"10/16/2019","14:52","219CR0026215","THEFT","THEFT","1808 REYNOLDS","",""
"10/16/2019","15:01","219CR0026216","THEFT","THEFT","2600 GRAND AVE","",""
"10/16/2019","15:03","219CR0026217","TRAFFIC","TRAFFIC","CINDERS BALL FIELD","",""
"10/16/2019","15:12","219CR0026218","ATL","ATL","ALUMINUM ST AND MONTANA ST","",""
"10/16/2019","15:12","219CR0026219","FIRE - OTHER","FIRE - OTHER","576 TERRA VERDE DRIVE","",""
"10/16/2019","15:14","219CR0026220","T/S","T/S","FIRST AND WYOMING ST","",""
"10/16/2019","15:21","219CR0026221","CITIZEN AID","CITIZEN AID","132 W BROADWAY","",""
"10/16/2019","15:31","219CR0026222","ALARM - FIRE","ALARM - FIRE","2611 PHILLIPS ST","",""
"10/16/2019","15:36","219CR0026223","DISTURBANCE","DISTURBANCE","1036 S UTAH","",""
"10/16/2019","15:36","219CR0026224","INFORMATION ONLY","INFORMATION ONLY","JEFFERSON COUNTY SHERIFF","",""
"10/16/2019","15:37","219CR0026225","SUSPICIOUS ACTIVITY","SUSPICIOUS ACTIVITY","2000 DEWEY BLVD DOTTYS CASINO","",""
"10/16/2019","15:54","219CR0026226","THEFT","THEFT","1501 OREGON AVE","",""
"10/16/2019","15:55","219CR0026227","SUSPICIOUS ACTIVITY","SUSPICIOUS ACTIVITY","CIVIC CENTER N PARKING LOT","",""
"10/16/2019","15:58","219CR0026228","WELFARE CHECK","WELFARE CHECK","3820 JUPITER LN #G7","",""
"10/16/2019","16:00","219CR0026229","THEFT","THEFT, ALL OTHERS","1 E BROADWAY #7","",""
"10/16/2019","16:02","219CR0026230","ACCIDENT","ACCIDENT","100 BLK W PARK","",""
"10/16/2019","16:07","219CR0026231","ALARM - MEDICAL","ALARM - MEDICAL","************","",""
"10/16/2019","16:08","219CR0026232","FIRE - OTHER","FIRE - OTHER","1300 BLK FARRELL ST","",""
"10/16/2019","16:11","219CR0026233","SUSPICIOUS ACTIVITY","SUSPICIOUS ACTIVITY","ST JAMES HOSPITAL PARKING LOT","",""
"10/16/2019","16:21","219CR0026234","DISTURBANCE","DISTURBANCE","1036 S UTAH ST","",""
"10/16/2019","16:38","219CR0026235","STOLEN VEHICLE","STOLEN VEHICLE","3745 HARRISON AVE","",""
"10/16/2019","16:54","219CR0026237","THEFT","THEFT, SHOPLIFT","3939 HARRISON","",""
"10/16/2019","16:54","219CR0026236","SUSPICIOUS ACTIVITY","SUSPICIOUS ACTIVITY","630 W IRON ST","",""
"10/16/2019","17:00","219CR0026238","STOLEN VEHICLE","STOLEN VEHICLE","225 N ALASKA","",""
"10/16/2019","17:09","219CR0026239","FIRE- GAS ODOR","FIRE- GAS ODOR","663 S WASHINGTON ST","",""
"10/16/2019","17:11","219CR0026240","CITIZEN AID","CITIZEN AID","1404 SILVERBOW HOMES","",""
"10/16/2019","17:41","219CR0026242","SUICIDE ATTEMPT/THREAT","SUICIDE ATTEMPT/THREAT","************","",""
"10/16/2019","17:41","219CR0026241","SUICIDE ATTEMPT/THREAT","SUICIDE ATTEMPT/THREAT","************","",""
"10/16/2019","18:31","219CR0026243","THEFT","THEFT, ALL OTHERS","2100 CORNELL QUALITY INN","",""
"10/16/2019","18:46","219CR0026244","RESTRAINING ORDER VIOLATION","VIOLATION OF PROTECTION ORDER","1111 W WOOLMAN ST","",""
"10/16/2019","18:54","219CR0026245","DISTURBANCE-NOISE","DISTURBANCE-NOISE","631 W GALENA ST APT 631","",""
"10/16/2019","19:19","219CR0026246","ABANDONED VEHICLE","ABANDONED VEHICLE","1022 S COLORADO","",""
"10/16/2019","19:25","219CR0026247","SUSPICIOUS ACTIVITY","SUSPICIOUS ACTIVITY","223 S JACKSON","",""
"10/16/2019","19:26","219CR0026248","FIRE - OTHER","FIRE - OTHER","ELM AND TEXAS","",""
"10/16/2019","19:31","219CR0026249","THEFT","THEFT","","",""
"10/16/2019","19:36","219CR0026250","T/S","T/S","MERCURY AND MONTANA","",""
"10/16/2019","19:50","219CR0026251","T/S","T/S","BONANZA FREEZE PARKING LOT","",""
"10/16/2019","20:10","219CR0026252","T/S","T/S","COBBAN AND HARRISON","",""
"10/16/2019","20:14","219CR0026253","T/S","T/S @ FRONT AND MISSOURI","FRONT AND MISSOURI","",""
"10/16/2019","20:40","219CR0026254","TRAFFIC","TRAFFIC","600 BLK OF GALENA","",""
"10/16/2019","20:50","219CR0026255","CITIZEN AID","CITIZEN AID","1404 SILVERBOW HOMES","",""
"10/16/2019","21:02","219CR0026256","SUSPICIOUS ACTIVITY","SUSPICIOUS ACTIVITY","405 E PARK ST","",""
"10/16/2019","21:12","219CR0026257","ALARM - BURGLARY","ALARM - BURGLARY","************","",""
"10/16/2019","21:27","219CR0026258","SUSPICIOUS ACTIVITY","SUSPICIOUS ACTIVITY","1916 S JACKSON","",""
"10/16/2019","21:40","219CR0026259","FRAUD","FRAUD","20 W GALENA RICHEST HILL CASIN","",""
"10/16/2019","22:23","219CR0026260","JUVENILE MISC","JUVENILE MISC","************","",""
"10/16/2019","22:29","219CR0026261","JUVENILE MISC","JUVENILE MISC","************","",""
"10/16/2019","22:34","219CR0026262","DISTURBANCE","DISTURBANCE","2314 WALNUT","",""
"10/16/2019","22:40","219CR0026263","SUSPICIOUS ACTIVITY","SUSPICIOUS ACTIVITY","1900 BLK S JACKSON","",""
"10/16/2019","22:49","219CR0026264","MEDICAL - EMERGENCY","MEDICAL - EMERGENCY","610 E PLATINUM","",""
"10/16/2019","22:51","219CR0026265","ASSIST OTHER AGENCY","ASSIST OTHER AGENCY","CONTINENTAL AND DEXTER","",""
"10/16/2019","22:58","219CR0026266","DISTURBANCE-NOISE","DISTURBANCE-NOISE","58 W PARK ST PARKING GARAGE","",""
"10/16/2019","22:59","219CR0026267","DISTURBANCE-NOISE","DISTURBANCE-NOISE","1342 SAGE STREET","",""
"10/16/2019","23:11","219CR0026268","OPEN BUILDING","OPEN BUILDING","THOMAS AND FLORAL","",""
"10/16/2019","23:37","219CR0026269","SUSPICIOUS ACTIVITY","SUSPICIOUS ACTIVITY","3301 BURLINGTON","",""
"10/16/2019","23:42","219CR0026270","HARASSMENT","HARASSMENT","212 S MONTANA","",""
"10/17/2019","00:19","219CR0026271","ALL OTHER","ALL OTHER","220 N WYOMING ST #220","",""
"10/17/2019","00:28","219CR0026272","MAN WITH A GUN","MAN WITH A GUN","************","",""
"10/17/2019","00:50","219CR0026274","ALARM - FIRE","ALARM - FIRE","220 GREEN ACRES DRIVE","",""
"10/17/2019","01:37","219CR0026275","MEDICAL - EMERGENCY","MEDICAL - EMERGENCY","130 CLOVER DRIVE","",""
"10/17/2019","01:45","219CR0026276","SUSPICIOUS ACTIVITY","SUSPICIOUS ACTIVITY","2711 HARRISON AVE","",""
"10/17/2019","01:57","219CR0026277","THEFT","THEFT, ALL OTHERS","1345 SUNSET","",""
"10/17/2019","02:49","219CR0026278","SUSPICIOUS ACTIVITY","SUSPICIOUS ACTIVITY","1375 HARRISON MET TAVERN","",""
"10/17/2019","03:59","219CR0026279","SUSPICIOUS ACTIVITY","SUSPICIOUS ACTIVITY","1515 OREGON AVE","",""
"10/17/2019","04:13","219CR0026280","ALARM - MEDICAL","ALARM - MEDICAL","************","",""
"10/17/2019","04:18","219CR0026281","SUSPICIOUS ACTIVITY","SUSPICIOUS ACTIVITY","910 EVANS ST","",""
"10/17/2019","04:33","219CR0026282","MEDICAL - EMERGENCY","MEDICAL - EMERGENCY","2900 ELM ST","",""
"10/17/2019","04:44","219CR0026283","SUSPICIOUS ACTIVITY","SUSPICIOUS ACTIVITY","ALUMINUM ST AND MONTANA ST","",""
"10/17/2019","05:18","219CR0026284","DISTURBANCE","PFMA STRANGULATION","2712 BAYARD","",""
"10/17/2019","05:35","219CR0026285","ALARM - FIRE","ALARM - FIRE","220 GREEN ACRE RD","",""
"10/17/2019","06:35","219CR0026286","SUSPICIOUS ACTIVITY","SUSPICIOUS ACTIVITY","2712 BAYARD","",""
"10/17/2019","06:51","219CR0026287","ABANDONED VEHICLE","ABANDONED VEHICLE","500 BLK W MERCURY","",""
"10/17/2019","07:14","219CR0026288","T/S","T/S @ MONTANA AND HOLLAND","MONTANA AND HOLLAND","",""
"10/17/2019","07:20","219CR0026289","ANIMAL COMPLAINT","ANIMAL COMPLAINT","2100 BLK PRINCETON","",""
"10/17/2019","07:44","219CR0026291","SUSPICIOUS ACTIVITY","SUSPICIOUS ACTIVITY","1810 ELM","",""
 

BSB police report for October 16, 2019

"10/15/2019","00:15","219CR0026047","SUSPICIOUS ACTIVITY","SUSPICIOUS ACTIVITY","1000 GRIZZLY TRAIL","",""
"10/15/2019","01:42","219CR0026048","T/S","T/S","FARRAGUT AVE AND CORNELL ST","",""
"10/15/2019","02:23","219CR0026049","WELFARE CHECK","DUI DRUGS OR ALCOHOL","1740 HOLMES AVE","ARREST(s) MADE",""
"10/15/2019","02:59","219CR0026050","SUSPICIOUS ACTIVITY","SUSPICIOUS ACTIVITY","700 BLK MAIN","",""
"10/15/2019","03:03","219CR0026051","DRUGS","DRUGS","************","",""
"10/15/2019","03:04","219CR0026052","SUSPICIOUS ACTIVITY","SUSPICIOUS ACTIVITY","423 N WYOMING ST","",""
"10/15/2019","03:04","219CR0026053","SUSPICIOUS ACTIVITY","SUSPICIOUS ACTIVITY","DAKOTA AND PLATINUM","",""
"10/15/2019","03:27","219CR0026054","WANTED PERSON","WANTED PERSON","************","",""
"10/15/2019","04:39","219CR0026055","THEFT","THEFT","","",""
"10/15/2019","05:26","219CR0026056","FRAUD","THEFT FROM MOTOR VEHICLE","3901 HARRISON AVE","",""
"10/15/2019","06:57","219CR0026057","ANIMAL COMPLAINT","ANIMAL COMPLAINT","203 BLACK ANGUS LANE","",""
"10/15/2019","07:32","219CR0026058","T/S","T/S","HARRISON AND ARGYLE","",""
"10/15/2019","07:37","219CR0026059","THEFT","THEFT FROM MOTOR VEHICLE","4655 HARRISON AVE","",""
"10/15/2019","07:48","219CR0026060","FIRE - VEHICLE","FIRE - VEHICLE","MONTANA ST AND INTERSTATE","",""
"10/15/2019","08:01","219CR0026061","DRUGS","DRUGS","************","",""
"10/15/2019","08:03","219CR0026062","T/S","T/S","FARRAGUT AND OTTAWA","",""
"10/15/2019","08:09","219CR0026063","ACCIDENT","ACCIDENT","HARRISON AND SAMPSON","",""
"10/15/2019","08:11","219CR0026064","VANDALISM/CRIMINAL MISCHIEF","CRIMINAL MISCHIEF","845 S WYOMING ST","",""
"10/15/2019","08:12","219CR0026065","ALARM - BURGLARY","ALARM - BURGLARY","************","",""
"10/15/2019","08:18","219CR0026066","FOUND PROPERTY","FOUND PROPERTY","************","",""
"10/15/2019","08:31","219CR0026067","CIVIL PAPER SERVICE","CIVIL PAPER SERVICE","2028 STUART","",""
"10/15/2019","08:33","219CR0026068","JUVENILE MISC","JUVENILE MISC","************","",""
"10/15/2019","08:34","219CR0026069","CIVIL PAPER SERVICE","CIVIL PAPER SERVICE","2016 GARFIELD","",""
"10/15/2019","08:56","219CR0026070","CIVIL PAPER SERVICE","CIVIL PAPER SERVICE","311 S JACKSON","",""
"10/15/2019","08:59","219CR0026071","T/S","T/S @ 11 DEWEY BLV ST FRANCIS VET","11 DEWEY BLV ST FRANCIS VET","",""
"10/15/2019","09:07","219CR0026072","ASSIST OTHER AGENCY","ASSIST OTHER AGENCY","2801 HARRISON AVE","",""
"10/15/2019","09:10","219CR0026073","SUSPICIOUS ACTIVITY","PROTECTIVE CUSTODY","SILVER BOW AND CAROLINA","ARREST(s) MADE",""
"10/15/2019","09:42","219CR0026074","CIVIL PAPER SERVICE","CIVIL PAPER SERVICE","401 W GRANITE #4","",""
"10/15/2019","09:50","219CR0026075","CIVIL PAPER SERVICE","CIVIL PAPER SERVICE","4134 WYNNE AVE APT B","",""
"10/15/2019","09:57","219CR0026076","PARKING COMPLAINT","PARKING COMPLAINT","600 ROW OF SILVER BOW HOMES","",""
"10/15/2019","10:04","219CR0026077","ABANDONED VEHICLE","ABANDONED VEHICLE","600 ROW OF SILVER BOW HOMES","",""
"10/15/2019","10:10","219CR0026078","JUVENILE MISC","JUVENILE MISC","************","",""
"10/15/2019","10:17","219CR0026079","CIVIL PAPER SERVICE","CIVIL PAPER SERVICE","4031 WYNNE APT B","",""
"10/15/2019","10:30","219CR0026082","THEFT","THEFT, ALL OTHERS","1500 FAIRMONT RD","",""
"10/15/2019","10:30","219CR0026081","CIVIL PAPER SERVICE","CIVIL PAPER SERVICE","1803 B ST","",""
"10/15/2019","10:41","219CR0026083","THEFT","THEFT","1946 HOWARD AVE","",""
"10/15/2019","10:43","219CR0026084","DISTURBANCE","DISTURBANCE","1946 HOWARD AVE","",""
"10/15/2019","10:58","219CR0026085","THEFT","THEFT","1201 S MONTANA","",""
"10/15/2019","10:59","219CR0026086","SUSPICIOUS ACTIVITY","SUSPICIOUS ACTIVITY","1396 SUNSET","",""
"10/15/2019","11:00","219CR0026087","THEFT","DECEPTIVE PRACT - CREDIT CARD","1016 S COLORADA","",""
"10/15/2019","11:06","219CR0026088","MEDICAL - EMERGENCY","MEDICAL - EMERGENCY","900 BLK S MAIN ST","",""
"10/15/2019","11:08","219CR0026089","WANTED PERSON","POSSESSION OF DANGEROUS DRUGS","2030 LOCUST","ARREST(s) MADE",""
"10/15/2019","11:25","219CR0026090","DISTURBANCE","DISTURBANCE","1125 W PARK ST","",""
"10/15/2019","11:25","219CR0026091","SUICIDE ATTEMPT/THREAT","SUICIDE ATTEMPT/THREAT","************","",""
"10/15/2019","11:33","219CR0026092","WANTED PERSON","OUT OF JURISDICTION - FELONY","225 ALASKA ST","ARREST(s) MADE",""
"10/15/2019","12:11","219CR0026094","ALL OTHER","ALL OTHER","","",""
"10/15/2019","12:27","219CR0026095","SUICIDE ATTEMPT/THREAT","SUICIDE ATTEMPT/THREAT","************","",""
"10/15/2019","12:49","219CR0026096","THEFT","THEFT","1000 GRIZZLY TRAIL","",""
"10/15/2019","13:03","219CR0026097","WELFARE CHECK","WELFARE CHECK","I90 EB RAMSEY EXIT","",""
"10/15/2019","13:10","219CR0026098","SUICIDE ATTEMPT/THREAT","SUICIDE ATTEMPT/THREAT","************","",""
"10/15/2019","13:25","219CR0026099","WANTED PERSON","WANTED PERSON","************","",""
"10/15/2019","13:31","219CR0026100","FRAUD","FRAUD","1925 ELIZABETH WARREN","",""
"10/15/2019","13:33","219CR0026101","UNKNOWN PROBLEM","UNKNOWN PROBLEM","BROADWAY ST AND MAIN ST","",""
"10/15/2019","13:35","219CR0026102","DETENTION BUSINESS","DETENTION BUSINESS","************","",""
"10/15/2019","14:16","219CR0026103","FIRE- GAS ODOR","FIRE- GAS ODOR","125 W GRANITE","",""
"10/15/2019","14:27","219CR0026104","ACCIDENT","ACCIDENT","HARRISON AND ELIZABETHWARREN","",""
"10/15/2019","14:33","219CR0026105","HARASSMENT","HARASSMENT","225 N ALASKA","",""
"10/15/2019","14:35","219CR0026106","CIVIL STANDBY","CIVIL STANDBY","637 S COLORADO","",""
"10/15/2019","14:45","219CR0026107","TRAFFIC HAZARD","TRAFFIC HAZARD","I90 WB","",""
"10/15/2019","14:55","219CR0026108","MEDICAL - EMERGENCY","MEDICAL - EMERGENCY","206 ASPEN LOOP","",""
"10/15/2019","15:10","219CR0026109","T/S","T/S","100 BLK W DALY","",""
"10/15/2019","15:23","219CR0026110","FIRE - OTHER","FIRE - OTHER","34 OLYMPIC WY","",""
"10/15/2019","15:30","219CR0026111","RESTRAINING ORDER VIOLATION","RESTRAINING ORDER VIOLATION","************","",""
"10/15/2019","15:36","219CR0026112","SUSPICIOUS ACTIVITY","SUSPICIOUS ACTIVITY","58 W PARK ST PARKING GARAGE","",""
"10/15/2019","15:37","219CR0026113","MEDICAL - EMERGENCY","MEDICAL - EMERGENCY","3205 HARRISON","",""
"10/15/2019","15:46","219CR0026114","ALARM - MEDICAL","ALARM - MEDICAL","************","",""
"10/15/2019","15:54","219CR0026115","T/S","T/S @ OREGON AVE AND SCHLEY ST","OREGON AVE AND SCHLEY ST","",""
"10/15/2019","16:04","219CR0026116","T/S","T/S @ HARRISON AND B ST","HARRISON AND B ST","",""
"10/15/2019","16:09","219CR0026117","CIVIL PAPER SERVICE","CIVIL PAPER SERVICE","901 S WASHINGTON #24","",""
"10/15/2019","16:23","219CR0026118","FOUND PROPERTY","FOUND PROPERTY","************","",""
"10/15/2019","16:25","219CR0026119","ACCIDENT","ACCIDENT","CIVIC CENTER AND HARRISON AVE","",""
"10/15/2019","16:52","219CR0026120","CITIZEN AID","CITIZEN AID","3100 HARRISON JOANN FABRIC","",""
"10/15/2019","17:07","219CR0026121","DISTURBANCE","DISTURBANCE","1404 SILVERBOW HOMES","",""
"10/15/2019","17:15","219CR0026122","THEFT","CRIMINAL CONTEMPT","MONTROSE AND ALUMINUM","ARREST(s) MADE",""
"10/15/2019","17:22","219CR0026123","UNWANTED PERSON","INTIMIDATION","207 W PARK ST #5","ARREST(s) MADE",""
"10/15/2019","17:32","219CR0026124","BUSINESS CHECK","BUSINESS CHECK","3700 HARRISON","",""
"10/15/2019","17:59","219CR0026125","FOUND PROPERTY","FOUND PROPERTY","************","",""
"10/15/2019","18:05","219CR0026126","SUSPICIOUS ACTIVITY","SUSPICIOUS ACTIVITY","500 BLK OF SILVER ST","",""
"10/15/2019","18:10","219CR0026127","DISTURBANCE","DISTURBANCE","631 S DAKOTA ST","",""
"10/15/2019","18:14","219CR0026128","T/S","T/S @ 600 BLK OF S WASHINGTON","600 BLK OF S WASHINGTON","",""
"10/15/2019","18:16","219CR0026129","ALARM - FIRE","ALARM - FIRE","5155 HARRISON","",""
"10/15/2019","18:22","219CR0026130","MEDICAL - EMERGENCY","MEDICAL - EMERGENCY","9 S IDAHO ST","",""
"10/15/2019","18:26","219CR0026131","SUSPICIOUS ACTIVITY","SUSPICIOUS ACTIVITY","ALABAMA AND MERCURY","",""
"10/15/2019","18:46","219CR0026132","CITIZEN AID","CITIZEN AID","225 N ALASKA","",""
"10/15/2019","19:43","219CR0026133","MEDICAL - EMERGENCY","MEDICAL - EMERGENCY","1515 OREGON AVE APT 807","",""
"10/15/2019","19:46","219CR0026134","ASSIST OTHER AGENCY","ASSIST OTHER AGENCY","I15 MM 155","",""
"10/15/2019","19:57","219CR0026135","ATL","ATL","400 W OXFORD ST","",""
"10/15/2019","20:17","219CR0026136","ASSIST OTHER AGENCY","ASSIST OTHER AGENCY","I15 MM 126 SB","",""
"10/15/2019","20:29","219CR0026137","BUSINESS CHECK","BUSINESS CHECK","2544 HARRISON LISACS TRI STOP","",""
"10/15/2019","20:38","219CR0026138","SUSPICIOUS ACTIVITY","SUSPICIOUS ACTIVITY","SECOND AND UTAH","",""
"10/15/2019","20:56","219CR0026139","SUICIDE ATTEMPT/THREAT","SUICIDE ATTEMPT/THREAT","************","",""
"10/15/2019","21:49","219CR0026140","HARASSMENT","HARASSMENT","1404 SILVERBOW HOMES","",""
"10/15/2019","21:59","219CR0026141","MEDICAL - EMERGENCY","MEDICAL - EMERGENCY","2952 TEAL #18","",""
"10/15/2019","22:19","219CR0026142","THEFT","THEFT","1404 SILVER BOW HOMES","",""
"10/15/2019","22:32","219CR0026143","SUICIDE ATTEMPT/THREAT","SUICIDE ATTEMPT/THREAT","************","",""
"10/15/2019","22:35","219CR0026144","DISTURBANCE","DISTURBANCE","2900 S MONTANA #1","",""
"10/15/2019","22:38","219CR0026145","MEDICAL - EMERGENCY","MEDICAL - EMERGENCY","PLATINUM AND MONTANA","",""
"10/15/2019","23:07","219CR0026146","INTIMIDATION","INTIMIDATION","4915 HARRISON AVE","",""
"10/15/2019","23:41","219CR0026147","MEDICAL - EMERGENCY","MEDICAL - EMERGENCY","1515 OREGON #514","",""
"10/15/2019","23:44","219CR0026148","SUSPICIOUS ACTIVITY","SUSPICIOUS ACTIVITY","ARIZONA AND IRON","",""
"10/16/2019","00:06","219CR0026149","SUSPICIOUS ACTIVITY","SUSPICIOUS ACTIVITY","700 BLK S MAIN","",""
"10/16/2019","00:21","219CR0026150","T/S","T/S","IDAHO ST AND GRANITE ST","",""
"10/16/2019","00:30","219CR0026151","SUSPICIOUS ACTIVITY","BURGLARY, RESIDENCE","2440 MOULTON ST","",""
"10/16/2019","00:48","219CR0026152","CITIZEN AID","CITIZEN AID","400 S CLARK ST","",""
"10/16/2019","00:52","219CR0026153","DISTURBANCE","CRIMINAL MISCHIEF","909 S COLORADO","ARREST(s) MADE",""
"10/16/2019","01:17","219CR0026154","BUSINESS CHECK","BUSINESS CHECK","531 S MONTANA","",""
"10/16/2019","01:24","219CR0026155","BUSINESS CHECK","BUSINESS CHECK","1370 HARRISON","",""
"10/16/2019","01:52","219CR0026156","SUSPICIOUS ACTIVITY","SUSPICIOUS ACTIVITY","1440 SCHLEY","",""
"10/16/2019","01:56","219CR0026157","SUSPICIOUS ACTIVITY","CRIMINAL CONTEMPT","IRON ST AND MAIN ST","ARREST(s) MADE",""
"10/16/2019","02:33","219CR0026158","SUSPICIOUS ACTIVITY","SUSPICIOUS ACTIVITY","ARGYLE AND THORNTON","",""
"10/16/2019","02:49","219CR0026159","MEDICAL - EMERGENCY","MEDICAL - EMERGENCY","2850 SILVER BOW BLVD","",""
"10/16/2019","03:49","219CR0026160","UNWANTED PERSON","UNWANTED PERSON","************","",""
"10/16/2019","04:51","219CR0026161","SUSPICIOUS ACTIVITY","SUSPICIOUS ACTIVITY","SILVER AND ALABAMA","",""
"10/16/2019","04:55","219CR0026162","ASSIST OTHER AGENCY","ASSIST OTHER AGENCY","I90 MM 240 EBND","",""
"10/16/2019","05:00","219CR0026163","SUSPICIOUS ACTIVITY","SUSPICIOUS ACTIVITY","2711 HARRISON AVE","",""
"10/16/2019","05:38","219CR0026164","SUSPICIOUS ACTIVITY","SUSPICIOUS ACTIVITY","531 S MONTANA","",""
"10/16/2019","05:44","219CR0026165","SUSPICIOUS ACTIVITY","SUSPICIOUS ACTIVITY","3700 HARRISON","",""
 

BSB police report ending October 15, 2019

"10/11/2019","00:59","219CR0025677","ALARM - BURGLARY","ALARM - BURGLARY","************","",""
"10/11/2019","01:10","219CR0025678","MEDICAL - EMERGENCY","MEDICAL - EMERGENCY","1370 HARRISON AVE","",""
"10/11/2019","01:20","219CR0025679","ALARM - FIRE","ALARM - FIRE","4034 ELIZABETH WARREN","",""
"10/11/2019","02:18","219CR0025680","SUSPICIOUS ACTIVITY","SUSPICIOUS ACTIVITY","550 E MERCURY MAC CENTER","",""
"10/11/2019","02:29","219CR0025681","ALL OTHER","ALL OTHER","400 S CLARK ST","",""
"10/11/2019","02:31","219CR0025682","SUSPICIOUS ACTIVITY","SUSPICIOUS ACTIVITY","159 TRINITY LOOP","",""
"10/11/2019","02:36","219CR0025683","BUSINESS CHECK","BUSINESS CHECK","1370 HARRISION","",""
"10/11/2019","02:41","219CR0025684","JUVENILE MISC","UNGOVERNABLE JUVENILE","910 W GRANITE","",""
"10/11/2019","03:00","219CR0025685","ALL OTHER","POSSESS DRUG PARAPHERNALIA","CRYSTAL AND GOLD","ARREST(s) MADE",""
"10/11/2019","04:34","219CR0025686","BUSINESS CHECK","BUSINESS CHECK","1915 DEWEY","",""
"10/11/2019","05:02","219CR0025687","ALARM - BURGLARY","ALARM - BURGLARY","************","",""
"10/11/2019","06:00","219CR0025688","ALARM - BURGLARY","ALARM - BURGLARY","************","",""
"10/11/2019","06:17","219CR0025689","ALARM - BURGLARY","ALARM - BURGLARY","************","",""
"10/11/2019","07:02","219CR0025690","ALARM - BURGLARY","ALARM - BURGLARY","************","",""
"10/11/2019","07:03","219CR0025691","TRAFFIC HAZARD","TRAFFIC HAZARD","700 BLK S MAIN","",""
"10/11/2019","07:10","219CR0025692","ALARM - BURGLARY","BURGLARY, NON-RESIDENCE","2740 ELM ST","",""
"10/11/2019","07:20","219CR0025693","T/S","T/S @ PORPHYRY AND MONTANA ST","PORPHYRY AND MONTANA ST","",""
"10/11/2019","07:37","219CR0025694","THEFT","THEFT FROM MOTOR VEHICLE","3021 EAGLE ST","",""
"10/11/2019","07:37","219CR0025695","CIVIL PAPER SERVICE","CIVIL PAPER SERVICE","605 SCHLEY #A","",""
"10/11/2019","07:50","219CR0025696","T/S","T/S","COBBAN AND THORNTON ST","",""
"10/11/2019","07:56","219CR0025697","THEFT","THEFT FROM MOTOR VEHICLE","2936 ARGYLE ST","",""
"10/11/2019","07:58","219CR0025698","MEDICAL - EMERGENCY","MEDICAL - EMERGENCY","1212 CAROLINA","",""
"10/11/2019","08:15","219CR0025699","CIVIL PAPER SERVICE","CIVIL PAPER SERVICE","1900 MONROE","",""
"10/11/2019","08:23","219CR0025700","ABANDONED VEHICLE","ABANDONED VEHICLE","2900 BLK ARGYLE ST","",""
"10/11/2019","08:24","219CR0025701","CIVIL PAPER SERVICE","CIVIL PAPER SERVICE","147 MISSOULA AVE","",""
"10/11/2019","08:29","219CR0025702","CIVIL PAPER SERVICE","CIVIL PAPER SERVICE","1812 GAYLORD","",""
"10/11/2019","08:32","219CR0025703","CIVIL PAPER SERVICE","CIVIL PAPER SERVICE","4031 WYNNE APT B","",""
"10/11/2019","08:41","219CR0025704","CIVIL PAPER SERVICE","CIVIL PAPER SERVICE","2100 CORNELL QUALITY INN","",""
"10/11/2019","08:43","219CR0025705","CIVIL PAPER SERVICE","CIVIL PAPER SERVICE","909 S COLORADO","",""
"10/11/2019","08:43","219CR0025706","CIVIL PAPER SERVICE","CIVIL PAPER SERVICE","721 HOBSON #3","",""
"10/11/2019","08:47","219CR0025707","ALARM - BURGLARY","ALARM - BURGLARY","************","",""
"10/11/2019","08:48","219CR0025708","CIVIL PAPER SERVICE","CIVIL PAPER SERVICE","5100 S WARREN #10","",""
"10/11/2019","08:59","219CR0025709","T/S","T/S","ALBANY AND ELIZABETH WARREN","",""
"10/11/2019","09:03","219CR0025710","CIVIL PAPER SERVICE","CIVIL PAPER SERVICE","3231 BUSCH ST","",""
"10/11/2019","09:05","219CR0025711","CIVIL PAPER SERVICE","CIVIL PAPER SERVICE","815 13TH ST","",""
"10/11/2019","09:08","219CR0025712","CIVIL PAPER SERVICE","CIVIL PAPER SERVICE","3331 BUSCH ST","",""
"10/11/2019","09:10","219CR0025713","T/S","T/S","HARRISON AVE AND AIRPORT RD","",""
"10/11/2019","09:13","219CR0025714","CIVIL PAPER SERVICE","CIVIL PAPER SERVICE","502 W PARK","",""
"10/11/2019","09:13","219CR0025715","CIVIL PAPER SERVICE","CIVIL PAPER SERVICE","1117 W PARK","",""
"10/11/2019","09:16","219CR0025716","DETENTION BUSINESS","DETENTION BUSINESS","************","",""
"10/11/2019","09:17","219CR0025717","CIVIL PAPER SERVICE","CIVIL PAPER SERVICE","401 W GRANITE #4","",""
"10/11/2019","09:18","219CR0025718","T/S","T/S","HARRISON AND MEADOWLARK","",""
"10/11/2019","09:32","219CR0025719","ALARM - FIRE","ALARM - FIRE","4655 HARRISON AVE","",""
"10/11/2019","09:59","219CR0025720","THEFT","THEFT FROM MOTOR VEHICLE","2739 ABERDEEN","",""
"10/11/2019","10:03","219CR0025721","T/S","T/S","HARRISON AND MT 2","",""
"10/11/2019","10:09","219CR0025722","T/S","T/S","5100 BLK HARRISON","",""
"10/11/2019","10:12","219CR0025723","CIVIL PAPER SERVICE","CIVIL PAPER SERVICE","311 S JACKSON","",""
"10/11/2019","10:17","219CR0025724","CIVIL PAPER SERVICE","CIVIL PAPER SERVICE","502 W PARK #4","",""
"10/11/2019","10:18","219CR0025725","JUVENILE MISC","JUVENILE MISC","************","",""
"10/11/2019","10:18","219CR0025726","T/S","T/S","SUNSET AND HARRISON","",""
"10/11/2019","10:27","219CR0025727","JUVENILE MISC","POSSESS DRUG PARAPHERNALIA","1050 S MONTANA ST","ARREST(s) MADE",""
"10/11/2019","10:27","219CR0025729","T/S","T/S","WALMART 3901 HARRISON","",""
"10/11/2019","10:27","219CR0025728","VANDALISM/CRIMINAL MISCHIEF","VANDALISM/CRIMINAL MISCHIEF","2202 PRINCETON","",""
"10/11/2019","10:38","219CR0025730","ALARM - FIRE","ALARM - FIRE","675 S DAKOTA","",""
"10/11/2019","10:43","219CR0025731","T/S","T/S","10 BLK BASIN CR RD","",""
"10/11/2019","10:44","219CR0025732","TRAFFIC HAZARD","TRAFFIC HAZARD","1201 CENTENNIAL AVE","",""
"10/11/2019","10:57","219CR0025733","DETENTION BUSINESS","DETENTION BUSINESS","************","",""
"10/11/2019","11:13","219CR0025734","SUSPICIOUS ACTIVITY","SUSPICIOUS ACTIVITY","310 W FRONT SAFEWAY","",""
"10/11/2019","11:58","219CR0025735","DETENTION BUSINESS","DETENTION BUSINESS","************","",""
"10/11/2019","12:10","219CR0025736","FIRE- GAS ODOR","FIRE- GAS ODOR","3401 HARRISON","",""
"10/11/2019","12:12","219CR0025737","SUICIDE ATTEMPT/THREAT","SUICIDE ATTEMPT/THREAT","************","",""
"10/11/2019","12:17","219CR0025738","VEHICLE INSPECTION","VEHICLE INSPECTION","2101 GEORGE","",""
"10/11/2019","12:24","219CR0025739","MEDICAL - EMERGENCY","MEDICAL - EMERGENCY","31 W PARK ST","",""
"10/11/2019","12:29","219CR0025740","DETENTION BUSINESS","DETENTION BUSINESS","************","",""
"10/11/2019","12:31","219CR0025741","HIT AND RUN","HIT AND RUN","1421 W GRANITE","",""
"10/11/2019","12:33","219CR0025742","ACCIDENT","ACCIDENT","FRONT AND UTAH","",""
"10/11/2019","12:35","219CR0025743","LED BUSINESS","LED BUSINESS","RURAL PATROL","",""
"10/11/2019","12:35","219CR0025744","LED BUSINESS","LED BUSINESS","UPTOWN BUTTE FOOT PATROL","",""
"10/11/2019","12:36","219CR0025745","HARASSMENT","HARASSMENT","225 N ALASKA","",""
"10/11/2019","12:41","219CR0025746","MISSING PERSON","MISSING PERSON","************","",""
"10/11/2019","12:44","219CR0025747","UNWANTED PERSON","UNWANTED PERSON","************","",""
"10/11/2019","12:54","219CR0025748","WANTED PERSON","WANTED PERSON","************","",""
"10/11/2019","12:57","219CR0025749","THEFT","THEFT FROM MOTOR VEHICLE","1118 W GOLD","",""
"10/11/2019","12:58","219CR0025750","JUVENILE MISC","JUVENILE MISC","************","",""
"10/11/2019","13:02","219CR0025751","WELFARE CHECK","WELFARE CHECK","1101 W MERCURY ST","",""
"10/11/2019","13:25","219CR0025752","ABANDONED VEHICLE","ABANDONED VEHICLE","GARFIELD AND GRAND","",""
"10/11/2019","13:56","219CR0025753","THEFT","THEFT OF VEHICLE PARTS/ACCESSO","225 ALASKA ST","",""
"10/11/2019","13:57","219CR0025754","CIVIL STANDBY","CIVIL STANDBY","1111 W WOOLMAN ST","",""
"10/11/2019","14:03","219CR0025755","ASSIST OTHER AGENCY","ASSIST OTHER AGENCY","1827 THORNTON","",""
"10/11/2019","14:06","219CR0025756","ASSAULT","ASSAULT","************","",""
"10/11/2019","14:20","219CR0025757","INTIMIDATION","INTIMIDATION","66 W PARK #203","",""
"10/11/2019","14:26","219CR0025758","ACCIDENT","ACCIDENT","CLINTON AND MAIN","",""
"10/11/2019","14:43","219CR0025759","THEFT","THEFT","1345 SUNSET","",""
"10/11/2019","14:51","219CR0025760","CITIZEN AID","CITIZEN AID","401 S WYOMING","",""
"10/11/2019","15:04","219CR0025761","MEDICAL - EMERGENCY","MEDICAL - EMERGENCY","225 N ALASKA","",""
"10/11/2019","15:08","219CR0025762","WANTED PERSON","THEFT, SHOPLIFT","1511 GAYLORD","",""
"10/11/2019","15:13","219CR0025763","ALL OTHER","ALL OTHER","1012 NEVADA","",""
"10/11/2019","15:34","219CR0025764","WANTED PERSON","WANTED PERSON","************","",""
"10/11/2019","16:26","219CR0025765","WELFARE CHECK","WELFARE CHECK","PORPHYRY AND CRYSTAL","",""
"10/11/2019","17:12","219CR0025766","T/S","T/S","QUARTZ AND MAIN","",""
"10/11/2019","17:36","219CR0025767","MEDICAL - EMERGENCY","MEDICAL - EMERGENCY","2 TROON DR","",""
"10/11/2019","17:44","219CR0025768","SUSPICIOUS ACTIVITY","SUSPICIOUS ACTIVITY","WHISKEY GULCH STATION","",""
"10/11/2019","18:17","219CR0025769","UNKNOWN PROBLEM","UNKNOWN PROBLEM","COLORADO AND FREEMONT","",""
"10/11/2019","18:20","219CR0025770","UNWANTED PERSON","UNWANTED PERSON","************","",""
"10/11/2019","18:23","219CR0025771","ACCIDENT","ACCIDENT","CORNELL AND HARRISON","",""
"10/11/2019","18:34","219CR0025772","T/S","OPERATING WITHOUT CURRENT REGI","CLEAVLAND AND HARRISON","",""
"10/11/2019","18:43","219CR0025773","SUSPICIOUS ACTIVITY","SUSPICIOUS ACTIVITY","323 S MONTANA #1","",""
"10/11/2019","19:18","219CR0025775","T/S","T/S","WYNN AND MCKINNLEY","",""
"10/11/2019","19:25","219CR0025776","ALARM - FIRE","ALARM - FIRE","","",""
"10/11/2019","19:26","219CR0025777","ALARM - FIRE","ALARM - FIRE","125 N MAIN","",""
"10/11/2019","19:30","219CR0025779","VANDALISM/CRIMINAL MISCHIEF","VANDALISM/CRIMINAL MISCHIEF","911 W SILVER","",""
"10/11/2019","19:30","219CR0025778","JUVENILE RUNAWAY","JUVENILE RUNAWAY","************","",""
"10/11/2019","19:44","219CR0025780","ASSAULT","ASSAULT","************","",""
"10/11/2019","19:52","219CR0025781","ASSIST OTHER AGENCY","ASSIST OTHER AGENCY","I90 E BOUND MM 237","",""
"10/11/2019","19:55","219CR0025782","DISTURBANCE","DISTURBANCE","2516 PARROT","",""
"10/11/2019","20:12","219CR0025783","DRUGS","POSSESS DRUG PARAPHERNALIA","1003 S COLORADO","",""
"10/11/2019","20:14","219CR0025784","MAN WITH A GUN","MAN WITH A GUN","************","",""
"10/11/2019","20:34","219CR0025785","WELFARE CHECK","WELFARE CHECK","724 NORTH ST","",""
"10/11/2019","20:57","219CR0025786","CITIZEN AID","CITIZEN AID","I90 EB MM 236","",""
"10/11/2019","21:04","219CR0025787","ABANDONED VEHICLE","ABANDONED VEHICLE","2304 PINE ST","",""
"10/11/2019","21:28","219CR0025788","THEFT","THEFT","310 W FRONT","",""
"10/11/2019","21:29","219CR0025789","DISTURBANCE","DISTURBANCE","2555 PARROT","",""
"10/11/2019","22:21","219CR0025790","MEDICAL - EMERGENCY","MEDICAL - EMERGENCY","300 MOUNT HIGHLAND DR","",""
"10/11/2019","22:41","219CR0025791","SUSPICIOUS ACTIVITY","SUSPICIOUS ACTIVITY","205 W GRANITE","",""
"10/11/2019","22:44","219CR0025792","HIT AND RUN","HIT AND RUN","3901 HARRISON AVE","",""
"10/11/2019","22:53","219CR0025793","MEDICAL - EMERGENCY","MEDICAL - EMERGENCY","531 S MONTANA","",""
"10/11/2019","22:55","219CR0025794","ALARM-DURESS","ALARM-DURESS","************","",""
"10/11/2019","22:58","219CR0025795","ASSIST OTHER AGENCY","ASSIST OTHER AGENCY","CHULA // ROWE ROAD","",""
"10/11/2019","23:34","219CR0025796","SUSPICIOUS ACTIVITY","SUSPICIOUS ACTIVITY","1027 S UTAH AVE","",""
"10/12/2019","00:43","219CR0025797","ASSIST OTHER AGENCY","ASSIST OTHER AGENCY","1827 THORNTON ST","",""
"10/12/2019","00:48","219CR0025798","UNKNOWN PROBLEM","UNKNOWN PROBLEM","1028 EMPIRE","",""
"10/12/2019","01:17","219CR0025799","ASSAULT","ASSAULT","************","",""
"10/12/2019","02:05","219CR0025800","DISTURBANCE","DISTURBANCE","GALENA AND WASHINGTON","",""
"10/12/2019","03:05","219CR0025801","JUVENILE MISC","JUVENILE MISC","************","",""
"10/12/2019","03:21","219CR0025802","SUSPICIOUS ACTIVITY","SUSPICIOUS ACTIVITY","REYNOLDS AND GEORGE","",""
"10/12/2019","04:23","219CR0025803","UNWANTED PERSON","UNWANTED PERSON","************","",""
"10/12/2019","06:38","219CR0025804","SUSPICIOUS ACTIVITY","SUSPICIOUS ACTIVITY","GALENA AND IDAHO","",""
"10/12/2019","07:14","219CR0025805","T/S","T/S","","",""
"10/12/2019","07:53","219CR0025806","ATL","ATL","","",""
"10/12/2019","08:56","219CR0025807","CIVIL PAPER SERVICE","CIVIL PAPER SERVICE","2102 WALNUT","",""
"10/12/2019","09:06","219CR0025808","CIVIL PAPER SERVICE","CIVIL PAPER SERVICE","1803 B ST","",""
"10/12/2019","09:19","219CR0025809","CIVIL PAPER SERVICE","CIVIL PAPER SERVICE","311 S JACKSON","",""
"10/12/2019","09:21","219CR0025810","T/S","T/S","2300 BLK AMHERST","",""
"10/12/2019","09:25","219CR0025811","SEXUAL ASSAULT","SEXUAL ASSAULT","************","",""
"10/12/2019","09:27","219CR0025812","SUSPICIOUS ACTIVITY","SUSPICIOUS ACTIVITY","W STEELE // MUSEUM WAY","",""
"10/12/2019","10:11","219CR0025813","SUSPICIOUS ACTIVITY","SUSPICIOUS ACTIVITY","600 BLK W SILVER","",""
"10/12/2019","10:28","219CR0025814","MEDICAL - EMERGENCY","MEDICAL - EMERGENCY","403 W QUARTZ","",""
"10/12/2019","10:28","219CR0025815","WELFARE CHECK","WELFARE CHECK","1028 EMPIRE","",""
"10/12/2019","10:31","219CR0025816","CIVIL PAPER SERVICE","CIVIL PAPER SERVICE","62 W BROADWAY","",""
"10/12/2019","10:35","219CR0025817","ATL","ATL","2720 PLACER ST","",""
"10/12/2019","10:45","219CR0025818","TRAFFIC","TRAFFIC","319 N EXCELSIOR","",""
"10/12/2019","11:18","219CR0025819","PARKING COMPLAINT","PARKING COMPLAINT","1340 W GRANITE","",""
"10/12/2019","11:26","219CR0025820","CIVIL PAPER SERVICE","CIVIL PAPER SERVICE","2900 HARRISON BEST WESTERN","",""
"10/12/2019","11:28","219CR0025821","ASSAULT","ASSAULT","************","",""
"10/12/2019","11:47","219CR0025822","TRAFFIC","TRAFFIC","PARK AND EXCELSIOR","",""
"10/12/2019","12:07","219CR0025823","STOLEN VEHICLE","STOLEN VEHICLE","155 W QUARTZ","",""
"10/12/2019","12:17","219CR0025824","LED BUSINESS","LED BUSINESS","RURAL PATROL","",""
"10/12/2019","12:23","219CR0025825","LED BUSINESS","LED BUSINESS","UPTOWN FOOT PATROL","",""
"10/12/2019","12:33","219CR0025826","T/S","DRIVE WHILE SUSP. OR REVOKED","531 S MONTANA ST","ARREST(s) MADE",""
"10/12/2019","12:45","219CR0025827","CIVIL PAPER SERVICE","CIVIL PAPER SERVICE","360 ROOSEVELT DRIVE","",""
"10/12/2019","12:56","219CR0025828","CIVIL PAPER SERVICE","CIVIL PAPER SERVICE","1812 GAYLORD","",""
"10/12/2019","13:03","219CR0025830","ASSAULT","ROBBERY","2136 NEVADA","",""
"10/12/2019","13:03","219CR0025829","T/S","T/S","3901 HARRISON","",""
"10/12/2019","13:13","219CR0025831","DISTURBANCE","DISTURBANCE","2801 LOCUST","",""
"10/12/2019","13:15","219CR0025832","MEDICAL - EMERGENCY","MEDICAL - EMERGENCY","2900 ELM ST","",""
"10/12/2019","13:20","219CR0025833","ASSIST OTHER AGENCY","ASSIST OTHER AGENCY","1557 BROWNING ST","",""
"10/12/2019","13:24","219CR0025834","CIVIL PAPER SERVICE","CIVIL PAPER SERVICE","132 SHIRLEY WAY","",""
"10/12/2019","13:49","219CR0025835","ACCIDENT","ACCIDENT","CRYSTAL AND PLATINUM","",""
"10/12/2019","14:12","219CR0025836","DISTURBANCE","DISTURBANCE","3020 MOULTON ST","",""
"10/12/2019","14:30","219CR0025837","ASSIST OTHER AGENCY","ASSIST OTHER AGENCY","I90 MM 218 WB","",""
"10/12/2019","14:35","219CR0025838","VANDALISM/CRIMINAL MISCHIEF","DRIVING W/OUT VALID D/L","FATHER SHEEHAN BALL FIELDS","",""
"10/12/2019","14:45","219CR0025839","CITIZEN AID","CITIZEN AID","1919 PHILLIPS","",""
"10/12/2019","15:10","219CR0025840","DISTURBANCE","DISTURBANCE","2003 PHILLIPS AVE","",""
"10/12/2019","15:14","219CR0025841","MEDICAL - EMERGENCY","MEDICAL - EMERGENCY","1028 EMPIRE","",""
"10/12/2019","15:15","219CR0025842","CITIZEN AID","CITIZEN AID","1919 PHILLIPS","",""
"10/12/2019","15:34","219CR0025843","BUSINESS CHECK","BUSINESS CHECK","SPUD MCGEE","",""
"10/12/2019","16:25","219CR0025844","ANIMAL COMPLAINT","ANIMAL COMPLAINT","620 W SILVER","",""
"10/12/2019","16:27","219CR0025845","THEFT","THEFT, SHOPLIFT","3901 HARRISON AVE","",""
"10/12/2019","16:38","219CR0025846","T/S","T/S","ARIZONA ST AND CURTIS ST","",""
"10/12/2019","17:03","219CR0025848","MEDICAL - EMERGENCY","MEDICAL - EMERGENCY","ST ANNES CHURCH","",""
"10/12/2019","17:48","219CR0025849","ALARM - BURGLARY","ALARM - BURGLARY","************","",""
"10/12/2019","18:14","219CR0025850","T/S","OPERATING WITHOUT CURRENT REGI","HAMILTON ST AND BROADWAY ST","",""
"10/12/2019","18:26","219CR0025851","SUSPICIOUS ACTIVITY","SUSPICIOUS ACTIVITY","633 S MONTANA","",""
"10/12/2019","18:44","219CR0025852","WELFARE CHECK","WELFARE CHECK","500 BLK W GRANITE","",""
"10/12/2019","18:49","219CR0025853","INTIMIDATION","DECEPTIVE BUSINESS PRACTICES","61 BENNETT","",""
"10/12/2019","18:58","219CR0025854","ALARM - BURGLARY","ALARM - BURGLARY","************","",""
"10/12/2019","19:40","219CR0025855","SUSPICIOUS ACTIVITY","SUSPICIOUS ACTIVITY","PLAZA MALL LOT","",""
"10/12/2019","19:42","219CR0025856","T/S","NO LIABILITY INSURANCE IN EFF.","SECOND AND COLORADO","",""
"10/12/2019","20:19","219CR0025857","T/S","T/S","HARRISON AND ARGYLE","",""
"10/12/2019","20:25","219CR0025858","CHILD ABUSE","CHILD ABUSE","************","",""
"10/12/2019","20:29","219CR0025859","MEDICAL - EMERGENCY","MEDICAL - EMERGENCY","220 CURTIS ST #111","",""
"10/12/2019","20:34","219CR0025860","WELFARE CHECK","WELFARE CHECK","2801 KOSSUTH","",""
"10/12/2019","20:50","219CR0025861","T/S","T/S","COBBAN AND PORTER","",""
"10/12/2019","21:13","219CR0025862","ASSAULT","ASSAULT","************","",""
"10/12/2019","21:24","219CR0025863","MEDICAL - EMERGENCY","MEDICAL - EMERGENCY","303 W DALY ST","",""
"10/12/2019","21:32","219CR0025864","WELFARE CHECK","WELFARE CHECK","3250 HECLA","",""
"10/12/2019","22:20","219CR0025866","SUSPICIOUS ACTIVITY","CRIMINAL CONTEMPT","2500 MASSACHUSETTS AVE","ARREST(s) MADE",""
"10/12/2019","22:21","219CR0025865","BUSINESS CHECK","CRIMINAL CONTEMPT","531 S MONTANA","ARREST(s) MADE",""
"10/12/2019","22:42","219CR0025867","DISTURBANCE","DISTURBANCE","2011 PORTER","",""
"10/12/2019","22:54","219CR0025868","DISTURBANCE-NOISE","DISTURBANCE-NOISE","GALENA AND CLARK","",""
"10/12/2019","23:01","219CR0025869","DISTURBANCE","DISTURBANCE","1201 S MONTANA JOKERS WILD","",""
"10/12/2019","23:04","219CR0025870","DISTURBANCE","DISTURBANCE","1500 FAIRMONT RD","",""
"10/12/2019","23:26","219CR0025871","SUSPICIOUS ACTIVITY","SUSPICIOUS ACTIVITY","AMHERST AND CONTINENTAL","",""
"10/12/2019","23:29","219CR0025872","UNWANTED PERSON","UNWANTED PERSON","************","",""
"10/12/2019","23:42","219CR0025873","MEDICAL - EMERGENCY","MEDICAL - EMERGENCY","1005 MISSOULA AVE","",""
"10/12/2019","23:44","219CR0025874","SUSPICIOUS ACTIVITY","SUSPICIOUS ACTIVITY","814 W PARK","",""
"10/13/2019","00:24","219CR0025875","SUSPICIOUS ACTIVITY","SUSPICIOUS ACTIVITY","PARK AND MAIN","",""
"10/13/2019","01:23","219CR0025876","DRUGS","POSSESS DRUG PARAPHERNALIA","1370 HARRISON","",""
"10/13/2019","01:28","219CR0025877","SEXUAL ASSAULT","SIWOC","2518 LOCUST ST","ARREST(s) MADE",""
"10/13/2019","01:50","219CR0025878","DISTURBANCE","DISTURBANCE","1 W PARK","",""
"10/13/2019","02:22","219CR0025879","DISTURBANCE","PROTECTIVE CUSTODY","2003 PHILLIPS","ARREST(s) MADE",""
"10/13/2019","03:20","219CR0025880","DISTURBANCE","DISTURBANCE","209 SILVER BOW HOMES","",""
"10/13/2019","04:02","219CR0025881","ALARM - BURGLARY","ALARM - BURGLARY","************","",""
"10/13/2019","04:36","219CR0025882","UNWANTED PERSON","UNWANTED PERSON","************","",""
"10/13/2019","04:59","219CR0025883","T/S","T/S","300 BLK W FRONT","",""
"10/13/2019","06:34","219CR0025884","ALARM - BURGLARY","ALARM - BURGLARY","************","",""
"10/13/2019","07:57","219CR0025885","SUICIDE ATTEMPT/THREAT","SUICIDE ATTEMPT/THREAT","************","",""
"10/13/2019","08:03","219CR0025886","ANIMAL COMPLAINT","ANIMAL COMPLAINT","I15 MM 128 SB","",""
"10/13/2019","08:54","219CR0025887","T/S","T/S","600 BLK OF S MONTANA","",""
"10/13/2019","09:55","219CR0025888","CITIZEN AID","CITIZEN AID","2714 PINE","",""
"10/13/2019","09:59","219CR0025889","CITIZEN AID","CITIZEN AID","3500 HARRISON AVE","",""
"10/13/2019","10:02","219CR0025890","ANIMAL COMPLAINT","ANIMAL COMPLAINT","2900 S MONTANA #5","",""
"10/13/2019","10:09","219CR0025891","FRAUD","FRAUD","1370 HARRISON AVE","",""
"10/13/2019","10:18","219CR0025892","ASSAULT","ASSAULT","************","",""
"10/13/2019","10:44","219CR0025893","FRAUD","FRAUD","1370 HARRISON AVE","",""
"10/13/2019","11:08","219CR0025894","ALARM - BURGLARY","ALARM - BURGLARY","************","",""
"10/13/2019","11:16","219CR0025895","UNWANTED PERSON","UNWANTED PERSON","************","",""
"10/13/2019","11:19","219CR0025896","ANIMAL COMPLAINT","ANIMAL COMPLAINT","HARRISON AVE AND GRAND AVE","",""
"10/13/2019","11:51","219CR0025897","BURGLARY","BURGLARY, RESIDENCE","602 CALEDONIA","",""
"10/13/2019","12:30","219CR0025898","LED BUSINESS","LED BUSINESS","UPTOWN FOOT PATROL","",""
"10/13/2019","12:41","219CR0025899","THEFT","THEFT","2807 SILVER BOW BLVD","",""
"10/13/2019","12:51","219CR0025900","THEFT","THEFT","318 W PLATINUM","",""
"10/13/2019","13:07","219CR0025901","JUVENILE MISC","JUVENILE MISC","************","",""
"10/13/2019","13:09","219CR0025902","INTOXICATED PERSON","INTOXICATED PERSON","630 W IRON ABUNDANT LIFE","",""
"10/13/2019","13:15","219CR0025903","LED BUSINESS","LED BUSINESS","RURAL PATROL","",""
"10/13/2019","13:55","219CR0025904","DISTURBANCE","CRIMINAL CONTEMPT","1600 BLK KAW","ARREST(s) MADE",""
"10/13/2019","13:57","219CR0025905","T/S","T/S @ 3500 BLK KEOKUK","3500 BLK KEOKUK","",""
"10/13/2019","14:09","219CR0025906","T/S","T/S","GRAND AND CONTINENTAL","",""
"10/13/2019","14:25","219CR0025907","SUSPICIOUS ACTIVITY","SUSPICIOUS ACTIVITY","","",""
"10/13/2019","14:39","219CR0025908","T/S","T/S","HARRISON AT SAFEWAY ON MASS","",""
"10/13/2019","14:51","219CR0025909","T/S","T/S","YALE AND HARRISON","",""
"10/13/2019","15:03","219CR0025910","SUSPICIOUS ACTIVITY","SUSPICIOUS ACTIVITY","DELAWARE AVE AND FRONT ST","",""
"10/13/2019","15:07","219CR0025911","PRIVACY IN COMMUNICATIONS","PRIVACY IN COMMUNICATIONS","************","",""
"10/13/2019","15:10","219CR0025912","SUSPICIOUS ACTIVITY","SUSPICIOUS ACTIVITY","900 BLK COLORADO AND DAKOTA","",""
"10/13/2019","15:35","219CR0025913","T/S","T/S","GRAND AVE AND LAFAYETTE ST","",""
"10/13/2019","15:50","219CR0025915","CIVIL STANDBY","CIVIL STANDBY","ST JAMES HOSPITAL","",""
"10/13/2019","15:57","219CR0025916","THEFT","THEFT, ALL OTHERS","1018 LEWISHON","",""
"10/13/2019","16:06","219CR0025917","SUSPICIOUS ACTIVITY","SUSPICIOUS ACTIVITY","800 BLK S WASHINGTON","",""
"10/13/2019","16:09","219CR0025918","PARKING COMPLAINT","PARKING COMPLAINT","1620 N MAIN","",""
"10/13/2019","16:22","219CR0025919","ANIMAL COMPLAINT","ANIMAL COMPLAINT","303 AMERICAN DRIVE","",""
"10/13/2019","16:28","219CR0025921","SUSPICIOUS ACTIVITY","SUSPICIOUS ACTIVITY","8303 CONTINENTAL DR","",""
"10/13/2019","16:29","219CR0025920","FOUND PROPERTY","FOUND PROPERTY","************","",""
"10/13/2019","16:46","219CR0025922","MEDICAL - EMERGENCY","MEDICAL - EMERGENCY","217 ASPEN LOOP","",""
"10/13/2019","17:07","219CR0025923","ALARM - MEDICAL","ALARM - MEDICAL","************","",""
"10/13/2019","17:58","219CR0025924","WELFARE CHECK","WELFARE CHECK","50 W BROADWAY #205","",""
"10/13/2019","18:02","219CR0025925","ALARM - FIRE","ALARM - FIRE","1819 PRINCETON","",""
"10/13/2019","18:11","219CR0025926","THEFT","THEFT, SHOPLIFT","3901 HARRISON","",""
"10/13/2019","18:12","219CR0025927","ALARM - MEDICAL","ALARM - MEDICAL","************","",""
"10/13/2019","18:14","219CR0025928","MEDICAL - EMERGENCY","MEDICAL - EMERGENCY","1025 HORNET","",""
"10/13/2019","18:35","219CR0025929","MEDICAL - EMERGENCY","MEDICAL - EMERGENCY","111 SILVER BOW HOMES","",""
"10/13/2019","18:48","219CR0025930","FOUND PROPERTY","FOUND PROPERTY","************","",""
"10/13/2019","18:49","219CR0025931","THEFT","THEFT, ALL OTHERS","865 S MAIN","",""
"10/13/2019","19:05","219CR0025932","CITIZEN AID","CITIZEN AID","2927 HECLA","",""
"10/13/2019","19:47","219CR0025933","SUSPICIOUS ACTIVITY","SUSPICIOUS ACTIVITY","1820 S UTAH AVE","",""
"10/13/2019","19:57","219CR0025934","DISTURBANCE","DISTURBANCE","814 PLACER ST","",""
"10/13/2019","19:57","219CR0025935","ANIMAL COMPLAINT","ANIMAL COMPLAINT","CONTINENTAL // GARFEILD","",""
"10/13/2019","20:30","219CR0025936","ALL OTHER","ALL OTHER","518 W PARK","",""
"10/13/2019","20:31","219CR0025937","CITIZEN AID","CITIZEN AID","400 S CLARK ST","",""
"10/13/2019","20:41","219CR0025938","CITIZEN AID","CITIZEN AID","1515 OREGON APT","",""
"10/13/2019","20:55","219CR0025939","CIVIL STANDBY","CIVIL STANDBY","2807 SILVER BOW BLVD","",""
"10/13/2019","20:56","219CR0025940","MEDICAL - EMERGENCY","MEDICAL - EMERGENCY","1940 S ARIZONA","",""
"10/13/2019","21:09","219CR0025941","T/S","T/S @ MASSACHUSSETES AND OTTAWA","MASSACHUSSETES AND OTTAWA","",""
"10/13/2019","21:39","219CR0025942","ALARM - FIRE","ALARM - FIRE","610 E PLATINUM","",""
"10/13/2019","21:49","219CR0025943","DISTURBANCE","DISTURBANCE","1124 NEVADA","",""
"10/13/2019","22:20","219CR0025944","JUVENILE MISC","JUVENILE MISC","************","",""
"10/13/2019","23:01","219CR0025945","INTOXICATED PERSON","INTOXICATED PERSON","1124 IOWA","",""
"10/13/2019","23:38","219CR0025946","THEFT","THEFT","1107 CALIFORNIA AVE","",""
"10/13/2019","23:51","219CR0025947","SUSPICIOUS ACTIVITY","SUSPICIOUS ACTIVITY","2100 BLK MEADOWLARK","",""
"10/14/2019","00:40","219CR0025948","SEXUAL ASSAULT","SEXUAL ASSAULT","************","ARREST(s) MADE",""
"10/14/2019","00:49","219CR0025949","SUSPICIOUS ACTIVITY","SUSPICIOUS ACTIVITY","900 BLK S COLORADO","",""
"10/14/2019","01:38","219CR0025950","SUSPICIOUS ACTIVITY","SUSPICIOUS ACTIVITY","MAUDES CANYON TRAIL","",""
"10/14/2019","02:01","219CR0025951","ALARM - BURGLARY","ALARM - BURGLARY","************","",""
"10/14/2019","02:22","219CR0025952","SUSPICIOUS ACTIVITY","SUSPICIOUS ACTIVITY","HARVARD & PINION","",""
"10/14/2019","02:41","219CR0025953","ALL OTHER","ALL OTHER","225 N ALASKA","",""
"10/14/2019","04:21","219CR0025954","SUSPICIOUS ACTIVITY","SUSPICIOUS ACTIVITY","1500 BLK GAYLORD","",""
"10/14/2019","04:28","219CR0025955","SUSPICIOUS ACTIVITY","SUSPICIOUS ACTIVITY","614 W SILVER","",""
"10/14/2019","06:19","219CR0025956","VANDALISM/CRIMINAL MISCHIEF","CRIMINAL MISCHIEF","633 W GALENA","",""
"10/14/2019","06:33","219CR0025957","THEFT","THEFT FROM MOTOR VEHICLE","1013 OREGON","",""
"10/14/2019","07:26","219CR0025958","ANIMAL COMPLAINT","ANIMAL COMPLAINT","MONTANA ST AND HANSEN RD","",""
"10/14/2019","07:31","219CR0025959","TRAFFIC HAZARD","TRAFFIC HAZARD","NASSAU AND VIENNA","",""
"10/14/2019","07:35","219CR0025960","CITIZEN AID","CITIZEN AID","909 S COLORADO","",""
"10/14/2019","07:47","219CR0025961","CIVIL PAPER SERVICE","CIVIL PAPER SERVICE","2102 WALNUT","",""
"10/14/2019","07:49","219CR0025962","SUSPICIOUS ACTIVITY","SUSPICIOUS ACTIVITY","226 W BROADWAY ST","",""
"10/14/2019","07:59","219CR0025963","CITIZEN AID","CITIZEN AID","DEWEY BLVD AND HARRISON AVE","",""
"10/14/2019","08:04","219CR0025964","T/S","T/S","YALE AND MASSACHUSETTS","",""
"10/14/2019","08:14","219CR0025965","JUVENILE MISC","UNGOVERNABLE JUVENILE","79 TOOLE WAY APT B","ARREST(s) MADE",""
"10/14/2019","08:16","219CR0025966","WELFARE CHECK","WELFARE CHECK","3303 ALBANY","",""
"10/14/2019","08:16","219CR0025967","CIVIL PAPER SERVICE","CIVIL PAPER SERVICE","1812 GAYLORD","",""
"10/14/2019","08:16","219CR0025968","CIVIL PAPER SERVICE","CIVIL PAPER SERVICE","605 SCHLEY APT A","",""
"10/14/2019","08:33","219CR0025969","JUVENILE RUNAWAY","JUVENILE RUNAWAY","************","",""
"10/14/2019","08:45","219CR0025970","CIVIL PAPER SERVICE","CIVIL PAPER SERVICE","721 HOBSON APT 3","",""
"10/14/2019","08:49","219CR0025971","DETENTION BUSINESS","DETENTION BUSINESS","************","",""
"10/14/2019","08:50","219CR0025972","FIRE - STRUCTURE","FIRE - STRUCTURE","4800 BLK HARRISON AVE","",""
"10/14/2019","09:23","219CR0025973","FIRE- GAS ODOR","FIRE- GAS ODOR","9 S IDAHO","",""
"10/14/2019","09:28","219CR0025974","DISTURBANCE","DISTURBANCE","809 TRAVONIA","",""
"10/14/2019","09:37","219CR0025975","RESTRAINING ORDER VIOLATION","RESTRAINING ORDER VIOLATION","************","",""
"10/14/2019","09:39","219CR0025976","JUVENILE MISC","JUVENILE MISC","************","",""
"10/14/2019","09:40","219CR0025977","THEFT","THEFT FROM MOTOR VEHICLE","1805 FLORIDA","",""
"10/14/2019","09:43","219CR0025978","THEFT","THEFT, SHOPLIFT","3703 HARRISON AVE","",""
"10/14/2019","09:55","219CR0025979","T/S","T/S","HARRISON AND HWY2","",""
"10/14/2019","10:23","219CR0025980","VANDALISM/CRIMINAL MISCHIEF","CRIMINAL MISCHIEF","518 W PARK","",""
"10/14/2019","10:42","219CR0025981","T/S","T/S","3500 BLK S WARREN AVE","",""
"10/14/2019","10:58","219CR0025982","ACCIDENT","ACCIDENT","EXCELSIOR AND W PARK","",""
"10/14/2019","11:13","219CR0025983","ANIMAL COMPLAINT","ANIMAL COMPLAINT","1121 W WOOLMAN","",""
"10/14/2019","11:15","219CR0025984","VANDALISM/CRIMINAL MISCHIEF","VANDALISM/CRIMINAL MISCHIEF","1300 W PARK HYPER COMPLEX","",""
"10/14/2019","11:33","219CR0025985","DISTURBANCE","DISTURBANCE","1946 HOWARD","",""
"10/14/2019","11:37","219CR0025987","JUVENILE MISC","JUVENILE MISC","************","",""
"10/14/2019","11:37","219CR0025986","T/S","T/S","SUNSET AND HARRISON AVE","",""
"10/14/2019","11:54","219CR0025988","ABANDONED VEHICLE","ABANDONED VEHICLE","99 E THIRD","",""
"10/14/2019","12:00","219CR0025989","SUSPICIOUS ACTIVITY","SUSPICIOUS ACTIVITY","10 BLK E MERCURY","",""
"10/14/2019","12:10","219CR0025990","ALL OTHER","ALL OTHER","2548 PARROT","",""
"10/14/2019","12:26","219CR0025991","LED BUSINESS","LED BUSINESS","155 W QUARTZ BSB DETENTION CTR","",""
"10/14/2019","12:36","219CR0025992","CIVIL PAPER SERVICE","CIVIL PAPER SERVICE","3331 BUSCH ST","",""
"10/14/2019","12:44","219CR0025993","SUSPICIOUS ACTIVITY","SUSPICIOUS ACTIVITY","25 W SILVER","",""
"10/14/2019","12:55","219CR0025994","ALARM - BURGLARY","ALARM - BURGLARY","************","",""
"10/14/2019","13:32","219CR0025995","FOUND PROPERTY","FOUND PROPERTY","************","",""
"10/14/2019","13:34","219CR0025996","LOST OR STOLEN PROPERTY","THEFT LOST OR MISLAID PROPERTY","3900 JUPITER LN #A207","",""
"10/14/2019","13:51","219CR0025997","VANDALISM/CRIMINAL MISCHIEF","CRIMINAL MISCHIEF","853 S MAIN","",""
"10/14/2019","13:58","219CR0025998","T/S","T/S","MONTANA ST AND GEORGE ST","",""
"10/14/2019","13:58","219CR0025999","ALL OTHER","ALL OTHER","UNKNOWN","",""
"10/14/2019","14:03","219CR0026000","ASSIST OTHER AGENCY","ASSIST OTHER AGENCY","MONTANA ST AND PORPHYRY ST","",""
"10/14/2019","14:20","219CR0026001","T/S","T/S","FRONT AND IOWA","",""
"10/14/2019","14:28","219CR0026002","UNWANTED PERSON","UNWANTED PERSON","************","",""
"10/14/2019","14:32","219CR0026003","SUSPICIOUS ACTIVITY","SUSPICIOUS ACTIVITY","PREVOST TRAIL","",""
"10/14/2019","14:48","219CR0026004","ATL","ATL","COBBAN AND HARRISON","",""
"10/14/2019","15:05","219CR0026005","T/S","T/S","900 BLK S ARIZONA ST","",""
"10/14/2019","15:09","219CR0026006","T/S","T/S","SECOND ST AND MARYLAND ST","",""
"10/14/2019","15:19","219CR0026007","T/S","T/S","SHELDS AND SECOND","",""
"10/14/2019","15:25","219CR0026008","ALL OTHER","ALL OTHER","","",""
"10/14/2019","15:36","219CR0026009","SUICIDE ATTEMPT/THREAT","SUICIDE ATTEMPT/THREAT","************","",""
"10/14/2019","15:38","219CR0026010","T/S","T/S","1800 BLK TEXAS AVE SB","",""
"10/14/2019","15:46","219CR0026011","T/S","T/S","2200 BLK GRAND","",""
"10/14/2019","15:57","219CR0026012","T/S","T/S","300 BLK N MAIN","",""
"10/14/2019","15:58","219CR0026013","CITIZEN AID","CITIZEN AID","225 N ALASKA","",""
"10/14/2019","16:03","219CR0026014","DISTURBANCE","DISTURBANCE","2400 BLK WASHOE","",""
"10/14/2019","16:05","219CR0026015","T/S","T/S","200 BLK W WOOLMAN ST","",""
"10/14/2019","16:16","219CR0026016","SUSPICIOUS ACTIVITY","SUSPICIOUS ACTIVITY","2009 SILVERBOW BLVD","",""
"10/14/2019","16:19","219CR0026017","HIT AND RUN","HIT AND RUN","1039 MARYLAND","",""
"10/14/2019","16:28","219CR0026018","ALARM - BURGLARY","ALARM - BURGLARY","************","",""
"10/14/2019","16:31","219CR0026019","T/S","T/S","GRAND AND GARFIELD","",""
"10/14/2019","16:37","219CR0026020","T/S","T/S","TEXAS AND GEORGE","",""
"10/14/2019","16:41","219CR0026021","CIVIL STANDBY","CIVIL STANDBY","2807 SILVERBOW BLVD","",""
"10/14/2019","16:44","219CR0026022","T/S","T/S","MT HIGHLAND DR AND VICTORIA","",""
"10/14/2019","16:46","219CR0026023","T/S","T/S","WYOMING AND GRANITE","",""
"10/14/2019","16:59","219CR0026024","ACCIDENT","ACCIDENT","PARK AND EXCELSIOR","",""
"10/14/2019","16:59","219CR0026025","DISTURBANCE","DISTURBANCE","","",""
"10/14/2019","17:20","219CR0026026","THEFT","THEFT","26 E SILVER","",""
"10/14/2019","17:25","219CR0026027","T/S","T/S","PLATINUM AND ALABAMA","",""
"10/14/2019","17:32","219CR0026028","THEFT","THEFT, ALL OTHERS","225 N ALASKA","",""
"10/14/2019","17:33","219CR0026029","T/S","T/S","MAIN AND 2ND","",""
"10/14/2019","17:34","219CR0026030","WELFARE CHECK","WELFARE CHECK","FRONT AND UTAH","",""
"10/14/2019","17:37","219CR0026031","ALARM - BURGLARY","ALARM - BURGLARY","************","",""
"10/14/2019","17:56","219CR0026032","ATL","ATL","1040 S MONTANA ST","",""
"10/14/2019","17:58","219CR0026033","THEFT","THEFT, ALL OTHERS","1404 SILVERBOW HOMES","",""
"10/14/2019","17:59","219CR0026034","T/S","T/S","ARIZONA AND MERCURY","",""
"10/14/2019","18:13","219CR0026035","ACCIDENT","CRIMINAL ENDANGERMENT","CASEY AND OREGON","ARREST(s) MADE",""
"10/14/2019","19:02","219CR0026036","SUSPICIOUS ACTIVITY","SUSPICIOUS ACTIVITY","900 BLK W PARK ST","",""
"10/14/2019","20:17","219CR0026038","T/S","SPEEDING","FARRELL AND GARFIELD","",""
"10/14/2019","20:40","219CR0026040","T/S","T/S @ MONTANA AND BROADWAY","MONTANA AND BROADWAY","",""
"10/14/2019","20:47","219CR0026041","WANTED PERSON","WANTED PERSON","************","",""
"10/14/2019","21:09","219CR0026042","ASSIST OTHER AGENCY","ASSIST OTHER AGENCY","COBBAN AND HARRISON","",""
"10/14/2019","21:14","219CR0026043","T/S","T/S","MAIN AND WOOLMAN","",""
"10/14/2019","21:15","219CR0026044","THEFT","THEFT","405 E PARK ST","",""
"10/14/2019","21:47","219CR0026045","SUSPICIOUS ACTIVITY","KIDNAPPING","122000 N BROWNS GULCH RD","",""
"10/14/2019","22:44","219CR0026046","SUSPICIOUS ACTIVITY","SUSPICIOUS ACTIVITY","900 DAWSON LOOP","",""
"10/15/2019","00:15","219CR0026047","SUSPICIOUS ACTIVITY","SUSPICIOUS ACTIVITY","1000 GRIZZLY TRAIL","",""
"10/15/2019","01:42","219CR0026048","T/S","T/S","FARRAGUT AVE AND CORNELL ST","",""
"10/15/2019","02:23","219CR0026049","WELFARE CHECK","DUI DRUGS OR ALCOHOL","1740 HOLMES AVE","ARREST(s) MADE",""
"10/15/2019","02:59","219CR0026050","SUSPICIOUS ACTIVITY","SUSPICIOUS ACTIVITY","700 BLK MAIN","",""
"10/15/2019","03:03","219CR0026051","DRUGS","DRUGS","************","",""
"10/15/2019","03:04","219CR0026052","SUSPICIOUS ACTIVITY","SUSPICIOUS ACTIVITY","423 N WYOMING ST","",""
"10/15/2019","03:04","219CR0026053","SUSPICIOUS ACTIVITY","SUSPICIOUS ACTIVITY","DAKOTA AND PLATINUM","",""
"10/15/2019","03:27","219CR0026054","WANTED PERSON","WANTED PERSON","************","",""
"10/15/2019","04:39","219CR0026055","THEFT","THEFT","","",""
"10/15/2019","05:26","219CR0026056","FRAUD","FRAUD","3901 HARRISON AVE","",""
"10/15/2019","06:57","219CR0026057","ANIMAL COMPLAINT","ANIMAL COMPLAINT","203 BLACK ANGUS LANE","",""
"10/15/2019","07:32","219CR0026058","T/S","T/S","HARRISON AND ARGYLE","",""
"10/15/2019","07:37","219CR0026059","THEFT","THEFT","4655 HARRISON AVE","",""
"10/15/2019","07:48","219CR0026060","FIRE - VEHICLE","FIRE - VEHICLE","MONTANA ST AND INTERSTATE","",""
"10/15/2019","08:01","219CR0026061","DRUGS","DRUGS","************","",""
"10/15/2019","08:03","219CR0026062","T/S","T/S @ FARRAGUT AND OTTAWA","FARRAGUT AND OTTAWA","",""
"10/15/2019","08:09","219CR0026063","ACCIDENT","ACCIDENT","HARRISON AND SAMPSON","",""
"10/15/2019","08:11","219CR0026064","VANDALISM/CRIMINAL MISCHIEF","VANDALISM/CRIMINAL MISCHIEF","845 S WYOMING ST","",""
"10/15/2019","08:12","219CR0026065","ALARM - BURGLARY","ALARM - BURGLARY","************","",""
"10/15/2019","08:18","219CR0026066","FOUND PROPERTY","FOUND PROPERTY","************","",""
"10/15/2019","08:31","219CR0026067","CIVIL PAPER SERVICE","CIVIL PAPER SERVICE","2028 STUART","",""
"10/15/2019","08:33","219CR0026068","JUVENILE MISC","JUVENILE MISC","************","",""
"10/15/2019","08:34","219CR0026069","CIVIL PAPER SERVICE","CIVIL PAPER SERVICE","2016 GARFIELD","",""
"10/15/2019","08:56","219CR0026070","CIVIL PAPER SERVICE","CIVIL PAPER SERVICE","311 S JACKSON","",""
"10/15/2019","08:59","219CR0026071","T/S","T/S @ 11 DEWEY BLV ST FRANCIS VET","11 DEWEY BLV ST FRANCIS VET","",""
"10/15/2019","09:07","219CR0026072","ASSIST OTHER AGENCY","ASSIST OTHER AGENCY","2801 HARRISON AVE","",""
 

BSB police report ending October 14, 2019

"10/11/2019","00:59","219CR0025677","ALARM - BURGLARY","ALARM - BURGLARY","************","",""
"10/11/2019","01:10","219CR0025678","MEDICAL - EMERGENCY","MEDICAL - EMERGENCY","1370 HARRISON AVE","",""
"10/11/2019","01:20","219CR0025679","ALARM - FIRE","ALARM - FIRE","4034 ELIZABETH WARREN","",""
"10/11/2019","02:18","219CR0025680","SUSPICIOUS ACTIVITY","SUSPICIOUS ACTIVITY","550 E MERCURY MAC CENTER","",""
"10/11/2019","02:29","219CR0025681","ALL OTHER","ALL OTHER","400 S CLARK ST","",""
"10/11/2019","02:31","219CR0025682","SUSPICIOUS ACTIVITY","SUSPICIOUS ACTIVITY","159 TRINITY LOOP","",""
"10/11/2019","02:36","219CR0025683","BUSINESS CHECK","BUSINESS CHECK","1370 HARRISION","",""
"10/11/2019","02:41","219CR0025684","JUVENILE MISC","UNGOVERNABLE JUVENILE","910 W GRANITE","",""
"10/11/2019","03:00","219CR0025685","ALL OTHER","POSSESS DRUG PARAPHERNALIA","CRYSTAL AND GOLD","ARREST(s) MADE",""
"10/11/2019","04:34","219CR0025686","BUSINESS CHECK","BUSINESS CHECK","1915 DEWEY","",""
"10/11/2019","05:02","219CR0025687","ALARM - BURGLARY","ALARM - BURGLARY","************","",""
"10/11/2019","06:00","219CR0025688","ALARM - BURGLARY","ALARM - BURGLARY","************","",""
"10/11/2019","06:17","219CR0025689","ALARM - BURGLARY","ALARM - BURGLARY","************","",""
"10/11/2019","07:02","219CR0025690","ALARM - BURGLARY","ALARM - BURGLARY","************","",""
"10/11/2019","07:03","219CR0025691","TRAFFIC HAZARD","TRAFFIC HAZARD","700 BLK S MAIN","",""
"10/11/2019","07:10","219CR0025692","ALARM - BURGLARY","BURGLARY, NON-RESIDENCE","2740 ELM ST","",""
"10/11/2019","07:20","219CR0025693","T/S","T/S @ PORPHYRY AND MONTANA ST","PORPHYRY AND MONTANA ST","",""
"10/11/2019","07:37","219CR0025694","THEFT","THEFT FROM MOTOR VEHICLE","3021 EAGLE ST","",""
"10/11/2019","07:37","219CR0025695","CIVIL PAPER SERVICE","CIVIL PAPER SERVICE","605 SCHLEY #A","",""
"10/11/2019","07:50","219CR0025696","T/S","T/S","COBBAN AND THORNTON ST","",""
"10/11/2019","07:56","219CR0025697","THEFT","THEFT FROM MOTOR VEHICLE","2936 ARGYLE ST","",""
"10/11/2019","07:58","219CR0025698","MEDICAL - EMERGENCY","MEDICAL - EMERGENCY","1212 CAROLINA","",""
"10/11/2019","08:15","219CR0025699","CIVIL PAPER SERVICE","CIVIL PAPER SERVICE","1900 MONROE","",""
"10/11/2019","08:23","219CR0025700","ABANDONED VEHICLE","ABANDONED VEHICLE","2900 BLK ARGYLE ST","",""
"10/11/2019","08:24","219CR0025701","CIVIL PAPER SERVICE","CIVIL PAPER SERVICE","147 MISSOULA AVE","",""
"10/11/2019","08:29","219CR0025702","CIVIL PAPER SERVICE","CIVIL PAPER SERVICE","1812 GAYLORD","",""
"10/11/2019","08:32","219CR0025703","CIVIL PAPER SERVICE","CIVIL PAPER SERVICE","4031 WYNNE APT B","",""
"10/11/2019","08:41","219CR0025704","CIVIL PAPER SERVICE","CIVIL PAPER SERVICE","2100 CORNELL QUALITY INN","",""
"10/11/2019","08:43","219CR0025705","CIVIL PAPER SERVICE","CIVIL PAPER SERVICE","909 S COLORADO","",""
"10/11/2019","08:43","219CR0025706","CIVIL PAPER SERVICE","CIVIL PAPER SERVICE","721 HOBSON #3","",""
"10/11/2019","08:47","219CR0025707","ALARM - BURGLARY","ALARM - BURGLARY","************","",""
"10/11/2019","08:48","219CR0025708","CIVIL PAPER SERVICE","CIVIL PAPER SERVICE","5100 S WARREN #10","",""
"10/11/2019","08:59","219CR0025709","T/S","T/S","ALBANY AND ELIZABETH WARREN","",""
"10/11/2019","09:03","219CR0025710","CIVIL PAPER SERVICE","CIVIL PAPER SERVICE","3231 BUSCH ST","",""
"10/11/2019","09:05","219CR0025711","CIVIL PAPER SERVICE","CIVIL PAPER SERVICE","815 13TH ST","",""
"10/11/2019","09:08","219CR0025712","CIVIL PAPER SERVICE","CIVIL PAPER SERVICE","3331 BUSCH ST","",""
"10/11/2019","09:10","219CR0025713","T/S","T/S","HARRISON AVE AND AIRPORT RD","",""
"10/11/2019","09:13","219CR0025714","CIVIL PAPER SERVICE","CIVIL PAPER SERVICE","502 W PARK","",""
"10/11/2019","09:13","219CR0025715","CIVIL PAPER SERVICE","CIVIL PAPER SERVICE","1117 W PARK","",""
"10/11/2019","09:16","219CR0025716","DETENTION BUSINESS","DETENTION BUSINESS","************","",""
"10/11/2019","09:17","219CR0025717","CIVIL PAPER SERVICE","CIVIL PAPER SERVICE","401 W GRANITE #4","",""
"10/11/2019","09:18","219CR0025718","T/S","T/S","HARRISON AND MEADOWLARK","",""
"10/11/2019","09:32","219CR0025719","ALARM - FIRE","ALARM - FIRE","4655 HARRISON AVE","",""
"10/11/2019","09:59","219CR0025720","THEFT","THEFT FROM MOTOR VEHICLE","2739 ABERDEEN","",""
"10/11/2019","10:03","219CR0025721","T/S","T/S","HARRISON AND MT 2","",""
"10/11/2019","10:09","219CR0025722","T/S","T/S","5100 BLK HARRISON","",""
"10/11/2019","10:12","219CR0025723","CIVIL PAPER SERVICE","CIVIL PAPER SERVICE","311 S JACKSON","",""
"10/11/2019","10:17","219CR0025724","CIVIL PAPER SERVICE","CIVIL PAPER SERVICE","502 W PARK #4","",""
"10/11/2019","10:18","219CR0025725","JUVENILE MISC","JUVENILE MISC","************","",""
"10/11/2019","10:18","219CR0025726","T/S","T/S","SUNSET AND HARRISON","",""
"10/11/2019","10:27","219CR0025727","JUVENILE MISC","POSSESS DRUG PARAPHERNALIA","1050 S MONTANA ST","ARREST(s) MADE",""
"10/11/2019","10:27","219CR0025728","VANDALISM/CRIMINAL MISCHIEF","VANDALISM/CRIMINAL MISCHIEF","2202 PRINCETON","",""
"10/11/2019","10:27","219CR0025729","T/S","T/S","WALMART 3901 HARRISON","",""
"10/11/2019","10:38","219CR0025730","ALARM - FIRE","ALARM - FIRE","675 S DAKOTA","",""
"10/11/2019","10:43","219CR0025731","T/S","T/S","10 BLK BASIN CR RD","",""
"10/11/2019","10:44","219CR0025732","TRAFFIC HAZARD","TRAFFIC HAZARD","1201 CENTENNIAL AVE","",""
"10/11/2019","10:57","219CR0025733","DETENTION BUSINESS","DETENTION BUSINESS","************","",""
"10/11/2019","11:13","219CR0025734","SUSPICIOUS ACTIVITY","SUSPICIOUS ACTIVITY","310 W FRONT SAFEWAY","",""
"10/11/2019","11:58","219CR0025735","DETENTION BUSINESS","DETENTION BUSINESS","************","",""
"10/11/2019","12:10","219CR0025736","FIRE- GAS ODOR","FIRE- GAS ODOR","3401 HARRISON","",""
"10/11/2019","12:12","219CR0025737","SUICIDE ATTEMPT/THREAT","SUICIDE ATTEMPT/THREAT","************","",""
"10/11/2019","12:17","219CR0025738","VEHICLE INSPECTION","VEHICLE INSPECTION","2101 GEORGE","",""
"10/11/2019","12:24","219CR0025739","MEDICAL - EMERGENCY","MEDICAL - EMERGENCY","31 W PARK ST","",""
"10/11/2019","12:29","219CR0025740","DETENTION BUSINESS","DETENTION BUSINESS","************","",""
"10/11/2019","12:31","219CR0025741","HIT AND RUN","HIT AND RUN","1421 W GRANITE","",""
"10/11/2019","12:33","219CR0025742","ACCIDENT","ACCIDENT","FRONT AND UTAH","",""
"10/11/2019","12:35","219CR0025743","LED BUSINESS","LED BUSINESS","RURAL PATROL","",""
"10/11/2019","12:35","219CR0025744","LED BUSINESS","LED BUSINESS","UPTOWN BUTTE FOOT PATROL","",""
"10/11/2019","12:36","219CR0025745","HARASSMENT","HARASSMENT","225 N ALASKA","",""
"10/11/2019","12:41","219CR0025746","MISSING PERSON","MISSING PERSON","************","",""
"10/11/2019","12:44","219CR0025747","UNWANTED PERSON","UNWANTED PERSON","************","",""
"10/11/2019","12:54","219CR0025748","WANTED PERSON","WANTED PERSON","************","",""
"10/11/2019","12:57","219CR0025749","THEFT","THEFT FROM MOTOR VEHICLE","1118 W GOLD","",""
"10/11/2019","12:58","219CR0025750","JUVENILE MISC","JUVENILE MISC","************","",""
"10/11/2019","13:02","219CR0025751","WELFARE CHECK","WELFARE CHECK","1101 W MERCURY ST","",""
"10/11/2019","13:25","219CR0025752","ABANDONED VEHICLE","ABANDONED VEHICLE","GARFIELD AND GRAND","",""
"10/11/2019","13:56","219CR0025753","THEFT","THEFT OF VEHICLE PARTS/ACCESSO","225 ALASKA ST","",""
"10/11/2019","13:57","219CR0025754","CIVIL STANDBY","CIVIL STANDBY","1111 W WOOLMAN ST","",""
"10/11/2019","14:03","219CR0025755","ASSIST OTHER AGENCY","ASSIST OTHER AGENCY","1827 THORNTON","",""
"10/11/2019","14:06","219CR0025756","ASSAULT","ASSAULT","************","",""
"10/11/2019","14:20","219CR0025757","INTIMIDATION","INTIMIDATION","66 W PARK #203","",""
"10/11/2019","14:26","219CR0025758","ACCIDENT","ACCIDENT","CLINTON AND MAIN","",""
"10/11/2019","14:43","219CR0025759","THEFT","THEFT","1345 SUNSET","",""
"10/11/2019","14:51","219CR0025760","CITIZEN AID","CITIZEN AID","401 S WYOMING","",""
"10/11/2019","15:04","219CR0025761","MEDICAL - EMERGENCY","MEDICAL - EMERGENCY","225 N ALASKA","",""
"10/11/2019","15:08","219CR0025762","WANTED PERSON","THEFT, SHOPLIFT","1511 GAYLORD","",""
"10/11/2019","15:13","219CR0025763","ALL OTHER","ALL OTHER","1012 NEVADA","",""
"10/11/2019","15:34","219CR0025764","WANTED PERSON","WANTED PERSON","************","",""
"10/11/2019","16:26","219CR0025765","WELFARE CHECK","WELFARE CHECK","PORPHYRY AND CRYSTAL","",""
"10/11/2019","17:12","219CR0025766","T/S","T/S","QUARTZ AND MAIN","",""
"10/11/2019","17:36","219CR0025767","MEDICAL - EMERGENCY","MEDICAL - EMERGENCY","2 TROON DR","",""
"10/11/2019","17:44","219CR0025768","SUSPICIOUS ACTIVITY","SUSPICIOUS ACTIVITY","WHISKEY GULCH STATION","",""
"10/11/2019","18:17","219CR0025769","UNKNOWN PROBLEM","UNKNOWN PROBLEM","COLORADO AND FREEMONT","",""
"10/11/2019","18:20","219CR0025770","UNWANTED PERSON","UNWANTED PERSON","************","",""
"10/11/2019","18:23","219CR0025771","ACCIDENT","ACCIDENT","CORNELL AND HARRISON","",""
"10/11/2019","18:34","219CR0025772","T/S","OPERATING WITHOUT CURRENT REGI","CLEAVLAND AND HARRISON","",""
"10/11/2019","18:43","219CR0025773","SUSPICIOUS ACTIVITY","SUSPICIOUS ACTIVITY","323 S MONTANA #1","",""
"10/11/2019","19:18","219CR0025775","T/S","T/S","WYNN AND MCKINNLEY","",""
"10/11/2019","19:25","219CR0025776","ALARM - FIRE","ALARM - FIRE","","",""
"10/11/2019","19:26","219CR0025777","ALARM - FIRE","ALARM - FIRE","125 N MAIN","",""
"10/11/2019","19:30","219CR0025779","VANDALISM/CRIMINAL MISCHIEF","VANDALISM/CRIMINAL MISCHIEF","911 W SILVER","",""
"10/11/2019","19:30","219CR0025778","JUVENILE RUNAWAY","JUVENILE RUNAWAY","************","",""
"10/11/2019","19:44","219CR0025780","ASSAULT","ASSAULT","************","",""
"10/11/2019","19:52","219CR0025781","ASSIST OTHER AGENCY","ASSIST OTHER AGENCY","I90 E BOUND MM 237","",""
"10/11/2019","19:55","219CR0025782","DISTURBANCE","DISTURBANCE","2516 PARROT","",""
"10/11/2019","20:12","219CR0025783","DRUGS","POSSESS DRUG PARAPHERNALIA","1003 S COLORADO","",""
"10/11/2019","20:14","219CR0025784","MAN WITH A GUN","MAN WITH A GUN","************","",""
"10/11/2019","20:34","219CR0025785","WELFARE CHECK","WELFARE CHECK","724 NORTH ST","",""
"10/11/2019","20:57","219CR0025786","CITIZEN AID","CITIZEN AID","I90 EB MM 236","",""
"10/11/2019","21:04","219CR0025787","ABANDONED VEHICLE","ABANDONED VEHICLE","2304 PINE ST","",""
"10/11/2019","21:28","219CR0025788","THEFT","THEFT","310 W FRONT","",""
"10/11/2019","21:29","219CR0025789","DISTURBANCE","DISTURBANCE","2555 PARROT","",""
"10/11/2019","22:21","219CR0025790","MEDICAL - EMERGENCY","MEDICAL - EMERGENCY","300 MOUNT HIGHLAND DR","",""
"10/11/2019","22:41","219CR0025791","SUSPICIOUS ACTIVITY","SUSPICIOUS ACTIVITY","205 W GRANITE","",""
"10/11/2019","22:44","219CR0025792","HIT AND RUN","HIT AND RUN","3901 HARRISON AVE","",""
"10/11/2019","22:53","219CR0025793","MEDICAL - EMERGENCY","MEDICAL - EMERGENCY","531 S MONTANA","",""
"10/11/2019","22:55","219CR0025794","ALARM-DURESS","ALARM-DURESS","************","",""
"10/11/2019","22:58","219CR0025795","ASSIST OTHER AGENCY","ASSIST OTHER AGENCY","CHULA // ROWE ROAD","",""
"10/11/2019","23:34","219CR0025796","SUSPICIOUS ACTIVITY","SUSPICIOUS ACTIVITY","1027 S UTAH AVE","",""
"10/12/2019","00:43","219CR0025797","ASSIST OTHER AGENCY","ASSIST OTHER AGENCY","1827 THORNTON ST","",""
"10/12/2019","00:48","219CR0025798","UNKNOWN PROBLEM","UNKNOWN PROBLEM","1028 EMPIRE","",""
"10/12/2019","01:17","219CR0025799","ASSAULT","ASSAULT","************","",""
"10/12/2019","02:05","219CR0025800","DISTURBANCE","DISTURBANCE","GALENA AND WASHINGTON","",""
"10/12/2019","03:05","219CR0025801","JUVENILE MISC","JUVENILE MISC","************","",""
"10/12/2019","03:21","219CR0025802","SUSPICIOUS ACTIVITY","SUSPICIOUS ACTIVITY","REYNOLDS AND GEORGE","",""
"10/12/2019","04:23","219CR0025803","UNWANTED PERSON","UNWANTED PERSON","************","",""
"10/12/2019","06:38","219CR0025804","SUSPICIOUS ACTIVITY","SUSPICIOUS ACTIVITY","GALENA AND IDAHO","",""
"10/12/2019","07:14","219CR0025805","T/S","T/S","","",""
"10/12/2019","07:53","219CR0025806","ATL","ATL","","",""
"10/12/2019","08:56","219CR0025807","CIVIL PAPER SERVICE","CIVIL PAPER SERVICE","2102 WALNUT","",""
"10/12/2019","09:06","219CR0025808","CIVIL PAPER SERVICE","CIVIL PAPER SERVICE","1803 B ST","",""
"10/12/2019","09:19","219CR0025809","CIVIL PAPER SERVICE","CIVIL PAPER SERVICE","311 S JACKSON","",""
"10/12/2019","09:21","219CR0025810","T/S","T/S","2300 BLK AMHERST","",""
"10/12/2019","09:25","219CR0025811","SEXUAL ASSAULT","SEXUAL ASSAULT","************","",""
"10/12/2019","09:27","219CR0025812","SUSPICIOUS ACTIVITY","SUSPICIOUS ACTIVITY","W STEELE // MUSEUM WAY","",""
"10/12/2019","10:11","219CR0025813","SUSPICIOUS ACTIVITY","SUSPICIOUS ACTIVITY","600 BLK W SILVER","",""
"10/12/2019","10:28","219CR0025814","MEDICAL - EMERGENCY","MEDICAL - EMERGENCY","403 W QUARTZ","",""
"10/12/2019","10:28","219CR0025815","WELFARE CHECK","WELFARE CHECK","1028 EMPIRE","",""
"10/12/2019","10:31","219CR0025816","CIVIL PAPER SERVICE","CIVIL PAPER SERVICE","62 W BROADWAY","",""
"10/12/2019","10:35","219CR0025817","ATL","ATL","2720 PLACER ST","",""
"10/12/2019","10:45","219CR0025818","TRAFFIC","TRAFFIC","319 N EXCELSIOR","",""
"10/12/2019","11:18","219CR0025819","PARKING COMPLAINT","PARKING COMPLAINT","1340 W GRANITE","",""
"10/12/2019","11:26","219CR0025820","CIVIL PAPER SERVICE","CIVIL PAPER SERVICE","2900 HARRISON BEST WESTERN","",""
"10/12/2019","11:28","219CR0025821","ASSAULT","ASSAULT","************","",""
"10/12/2019","11:47","219CR0025822","TRAFFIC","TRAFFIC","PARK AND EXCELSIOR","",""
"10/12/2019","12:07","219CR0025823","STOLEN VEHICLE","STOLEN VEHICLE","155 W QUARTZ","",""
"10/12/2019","12:17","219CR0025824","LED BUSINESS","LED BUSINESS","RURAL PATROL","",""
"10/12/2019","12:23","219CR0025825","LED BUSINESS","LED BUSINESS","UPTOWN FOOT PATROL","",""
"10/12/2019","12:33","219CR0025826","T/S","DRIVE WHILE SUSP. OR REVOKED","531 S MONTANA ST","ARREST(s) MADE",""
"10/12/2019","12:45","219CR0025827","CIVIL PAPER SERVICE","CIVIL PAPER SERVICE","360 ROOSEVELT DRIVE","",""
"10/12/2019","12:56","219CR0025828","CIVIL PAPER SERVICE","CIVIL PAPER SERVICE","1812 GAYLORD","",""
"10/12/2019","13:03","219CR0025830","ASSAULT","ROBBERY","2136 NEVADA","",""
"10/12/2019","13:03","219CR0025829","T/S","T/S","3901 HARRISON","",""
"10/12/2019","13:13","219CR0025831","DISTURBANCE","DISTURBANCE","2801 LOCUST","",""
"10/12/2019","13:15","219CR0025832","MEDICAL - EMERGENCY","MEDICAL - EMERGENCY","2900 ELM ST","",""
"10/12/2019","13:20","219CR0025833","ASSIST OTHER AGENCY","ASSIST OTHER AGENCY","1557 BROWNING ST","",""
"10/12/2019","13:24","219CR0025834","CIVIL PAPER SERVICE","CIVIL PAPER SERVICE","132 SHIRLEY WAY","",""
"10/12/2019","13:49","219CR0025835","ACCIDENT","ACCIDENT","CRYSTAL AND PLATINUM","",""
"10/12/2019","14:12","219CR0025836","DISTURBANCE","DISTURBANCE","3020 MOULTON ST","",""
"10/12/2019","14:30","219CR0025837","ASSIST OTHER AGENCY","ASSIST OTHER AGENCY","I90 MM 218 WB","",""
"10/12/2019","14:35","219CR0025838","VANDALISM/CRIMINAL MISCHIEF","DRIVING W/OUT VALID D/L","FATHER SHEEHAN BALL FIELDS","",""
"10/12/2019","14:45","219CR0025839","CITIZEN AID","CITIZEN AID","1919 PHILLIPS","",""
"10/12/2019","15:10","219CR0025840","DISTURBANCE","DISTURBANCE","2003 PHILLIPS AVE","",""
"10/12/2019","15:14","219CR0025841","MEDICAL - EMERGENCY","MEDICAL - EMERGENCY","1028 EMPIRE","",""
"10/12/2019","15:15","219CR0025842","CITIZEN AID","CITIZEN AID","1919 PHILLIPS","",""
"10/12/2019","15:34","219CR0025843","BUSINESS CHECK","BUSINESS CHECK","SPUD MCGEE","",""
"10/12/2019","16:25","219CR0025844","ANIMAL COMPLAINT","ANIMAL COMPLAINT","620 W SILVER","",""
"10/12/2019","16:27","219CR0025845","THEFT","THEFT, SHOPLIFT","3901 HARRISON AVE","",""
"10/12/2019","16:38","219CR0025846","T/S","T/S","ARIZONA ST AND CURTIS ST","",""
"10/12/2019","17:03","219CR0025848","MEDICAL - EMERGENCY","MEDICAL - EMERGENCY","ST ANNES CHURCH","",""
"10/12/2019","17:48","219CR0025849","ALARM - BURGLARY","ALARM - BURGLARY","************","",""
"10/12/2019","18:14","219CR0025850","T/S","OPERATING WITHOUT CURRENT REGI","HAMILTON ST AND BROADWAY ST","",""
"10/12/2019","18:26","219CR0025851","SUSPICIOUS ACTIVITY","SUSPICIOUS ACTIVITY","633 S MONTANA","",""
"10/12/2019","18:44","219CR0025852","WELFARE CHECK","WELFARE CHECK","500 BLK W GRANITE","",""
"10/12/2019","18:49","219CR0025853","INTIMIDATION","DECEPTIVE BUSINESS PRACTICES","61 BENNETT","",""
"10/12/2019","18:58","219CR0025854","ALARM - BURGLARY","ALARM - BURGLARY","************","",""
"10/12/2019","19:40","219CR0025855","SUSPICIOUS ACTIVITY","SUSPICIOUS ACTIVITY","PLAZA MALL LOT","",""
"10/12/2019","19:42","219CR0025856","T/S","NO LIABILITY INSURANCE IN EFF.","SECOND AND COLORADO","",""
"10/12/2019","20:19","219CR0025857","T/S","T/S","HARRISON AND ARGYLE","",""
"10/12/2019","20:25","219CR0025858","CHILD ABUSE","CHILD ABUSE","************","",""
"10/12/2019","20:29","219CR0025859","MEDICAL - EMERGENCY","MEDICAL - EMERGENCY","220 CURTIS ST #111","",""
"10/12/2019","20:34","219CR0025860","WELFARE CHECK","WELFARE CHECK","2801 KOSSUTH","",""
"10/12/2019","20:50","219CR0025861","T/S","T/S","COBBAN AND PORTER","",""
"10/12/2019","21:13","219CR0025862","ASSAULT","ASSAULT","************","",""
"10/12/2019","21:24","219CR0025863","MEDICAL - EMERGENCY","MEDICAL - EMERGENCY","303 W DALY ST","",""
"10/12/2019","21:32","219CR0025864","WELFARE CHECK","WELFARE CHECK","3250 HECLA","",""
"10/12/2019","22:20","219CR0025866","SUSPICIOUS ACTIVITY","CRIMINAL CONTEMPT","2500 MASSACHUSETTS AVE","ARREST(s) MADE",""
"10/12/2019","22:21","219CR0025865","BUSINESS CHECK","CRIMINAL CONTEMPT","531 S MONTANA","ARREST(s) MADE",""
"10/12/2019","22:42","219CR0025867","DISTURBANCE","DISTURBANCE","2011 PORTER","",""
"10/12/2019","22:54","219CR0025868","DISTURBANCE-NOISE","DISTURBANCE-NOISE","GALENA AND CLARK","",""
"10/12/2019","23:01","219CR0025869","DISTURBANCE","DISTURBANCE","1201 S MONTANA JOKERS WILD","",""
"10/12/2019","23:04","219CR0025870","DISTURBANCE","DISTURBANCE","1500 FAIRMONT RD","",""
"10/12/2019","23:26","219CR0025871","SUSPICIOUS ACTIVITY","SUSPICIOUS ACTIVITY","AMHERST AND CONTINENTAL","",""
"10/12/2019","23:29","219CR0025872","UNWANTED PERSON","UNWANTED PERSON","************","",""
"10/12/2019","23:42","219CR0025873","MEDICAL - EMERGENCY","MEDICAL - EMERGENCY","1005 MISSOULA AVE","",""
"10/12/2019","23:44","219CR0025874","SUSPICIOUS ACTIVITY","SUSPICIOUS ACTIVITY","814 W PARK","",""
"10/13/2019","00:24","219CR0025875","SUSPICIOUS ACTIVITY","SUSPICIOUS ACTIVITY","PARK AND MAIN","",""
"10/13/2019","01:23","219CR0025876","DRUGS","POSSESS DRUG PARAPHERNALIA","1370 HARRISON","",""
"10/13/2019","01:28","219CR0025877","SEXUAL ASSAULT","SIWOC","2518 LOCUST ST","ARREST(s) MADE",""
"10/13/2019","01:50","219CR0025878","DISTURBANCE","DISTURBANCE","1 W PARK","",""
"10/13/2019","02:22","219CR0025879","DISTURBANCE","PROTECTIVE CUSTODY","2003 PHILLIPS","ARREST(s) MADE",""
"10/13/2019","03:20","219CR0025880","DISTURBANCE","DISTURBANCE","209 SILVER BOW HOMES","",""
"10/13/2019","04:02","219CR0025881","ALARM - BURGLARY","ALARM - BURGLARY","************","",""
"10/13/2019","04:36","219CR0025882","UNWANTED PERSON","UNWANTED PERSON","************","",""
"10/13/2019","04:59","219CR0025883","T/S","T/S @ 300 BLK W FRONT","300 BLK W FRONT","",""
"10/13/2019","06:34","219CR0025884","ALARM - BURGLARY","ALARM - BURGLARY","************","",""
"10/13/2019","07:57","219CR0025885","SUICIDE ATTEMPT/THREAT","SUICIDE ATTEMPT/THREAT","************","",""
"10/13/2019","08:03","219CR0025886","ANIMAL COMPLAINT","ANIMAL COMPLAINT","I15 MM 128 SB","",""
"10/13/2019","08:54","219CR0025887","T/S","T/S","600 BLK OF S MONTANA","",""
"10/13/2019","09:55","219CR0025888","CITIZEN AID","CITIZEN AID","2714 PINE","",""
"10/13/2019","09:59","219CR0025889","CITIZEN AID","CITIZEN AID","3500 HARRISON AVE","",""
"10/13/2019","10:02","219CR0025890","ANIMAL COMPLAINT","ANIMAL COMPLAINT","2900 S MONTANA #5","",""
"10/13/2019","10:09","219CR0025891","FRAUD","FRAUD","1370 HARRISON AVE","",""
"10/13/2019","10:18","219CR0025892","ASSAULT","ASSAULT","************","",""
"10/13/2019","10:44","219CR0025893","FRAUD","FRAUD","1370 HARRISON AVE","",""
"10/13/2019","11:08","219CR0025894","ALARM - BURGLARY","ALARM - BURGLARY","************","",""
"10/13/2019","11:16","219CR0025895","UNWANTED PERSON","UNWANTED PERSON","************","",""
"10/13/2019","11:19","219CR0025896","ANIMAL COMPLAINT","ANIMAL COMPLAINT","HARRISON AVE AND GRAND AVE","",""
"10/13/2019","11:51","219CR0025897","BURGLARY","BURGLARY, RESIDENCE","602 CALEDONIA","",""
"10/13/2019","12:30","219CR0025898","LED BUSINESS","LED BUSINESS","UPTOWN FOOT PATROL","",""
"10/13/2019","12:41","219CR0025899","THEFT","THEFT","2807 SILVER BOW BLVD","",""
"10/13/2019","12:51","219CR0025900","THEFT","THEFT","318 W PLATINUM","",""
"10/13/2019","13:07","219CR0025901","JUVENILE MISC","JUVENILE MISC","************","",""
"10/13/2019","13:09","219CR0025902","INTOXICATED PERSON","INTOXICATED PERSON","630 W IRON ABUNDANT LIFE","",""
"10/13/2019","13:15","219CR0025903","LED BUSINESS","LED BUSINESS","RURAL PATROL","",""
"10/13/2019","13:55","219CR0025904","DISTURBANCE","CRIMINAL CONTEMPT","1600 BLK KAW","ARREST(s) MADE",""
"10/13/2019","13:57","219CR0025905","T/S","T/S @ 3500 BLK KEOKUK","3500 BLK KEOKUK","",""
"10/13/2019","14:09","219CR0025906","T/S","T/S","GRAND AND CONTINENTAL","",""
"10/13/2019","14:25","219CR0025907","SUSPICIOUS ACTIVITY","SUSPICIOUS ACTIVITY","","",""
"10/13/2019","14:39","219CR0025908","T/S","T/S","HARRISON AT SAFEWAY ON MASS","",""
"10/13/2019","14:51","219CR0025909","T/S","T/S","YALE AND HARRISON","",""
"10/13/2019","15:03","219CR0025910","SUSPICIOUS ACTIVITY","SUSPICIOUS ACTIVITY","DELAWARE AVE AND FRONT ST","",""
"10/13/2019","15:07","219CR0025911","PRIVACY IN COMMUNICATIONS","PRIVACY IN COMMUNICATIONS","************","",""
"10/13/2019","15:10","219CR0025912","SUSPICIOUS ACTIVITY","SUSPICIOUS ACTIVITY","900 BLK COLORADO AND DAKOTA","",""
"10/13/2019","15:35","219CR0025913","T/S","T/S @ GRAND AVE AND LAFAYETTE ST","GRAND AVE AND LAFAYETTE ST","",""
"10/13/2019","15:50","219CR0025915","CIVIL STANDBY","CIVIL STANDBY","ST JAMES HOSPITAL","",""
"10/13/2019","15:57","219CR0025916","THEFT","THEFT, ALL OTHERS","1018 LEWISHON","",""
"10/13/2019","16:06","219CR0025917","SUSPICIOUS ACTIVITY","SUSPICIOUS ACTIVITY","800 BLK S WASHINGTON","",""
"10/13/2019","16:09","219CR0025918","PARKING COMPLAINT","PARKING COMPLAINT","1620 N MAIN","",""
"10/13/2019","16:22","219CR0025919","ANIMAL COMPLAINT","ANIMAL COMPLAINT","303 AMERICAN DRIVE","",""
"10/13/2019","16:28","219CR0025921","SUSPICIOUS ACTIVITY","SUSPICIOUS ACTIVITY","8303 CONTINENTAL DR","",""
"10/13/2019","16:29","219CR0025920","FOUND PROPERTY","FOUND PROPERTY","************","",""
"10/13/2019","16:46","219CR0025922","MEDICAL - EMERGENCY","MEDICAL - EMERGENCY","217 ASPEN LOOP","",""
"10/13/2019","17:07","219CR0025923","ALARM - MEDICAL","ALARM - MEDICAL","************","",""
"10/13/2019","17:58","219CR0025924","WELFARE CHECK","WELFARE CHECK","50 W BROADWAY #205","",""
"10/13/2019","18:02","219CR0025925","ALARM - FIRE","ALARM - FIRE","1819 PRINCETON","",""
"10/13/2019","18:11","219CR0025926","THEFT","THEFT, SHOPLIFT","3901 HARRISON","",""
"10/13/2019","18:12","219CR0025927","ALARM - MEDICAL","ALARM - MEDICAL","************","",""
"10/13/2019","18:14","219CR0025928","MEDICAL - EMERGENCY","MEDICAL - EMERGENCY","1025 HORNET","",""
"10/13/2019","18:35","219CR0025929","MEDICAL - EMERGENCY","MEDICAL - EMERGENCY","111 SILVER BOW HOMES","",""
"10/13/2019","18:48","219CR0025930","FOUND PROPERTY","FOUND PROPERTY","************","",""
"10/13/2019","18:49","219CR0025931","THEFT","THEFT, ALL OTHERS","865 S MAIN","",""
"10/13/2019","19:05","219CR0025932","CITIZEN AID","CITIZEN AID","2927 HECLA","",""
"10/13/2019","19:47","219CR0025933","SUSPICIOUS ACTIVITY","SUSPICIOUS ACTIVITY","1820 S UTAH AVE","",""
"10/13/2019","19:57","219CR0025934","DISTURBANCE","DISTURBANCE","814 PLACER ST","",""
"10/13/2019","19:57","219CR0025935","ANIMAL COMPLAINT","ANIMAL COMPLAINT","CONTINENTAL // GARFEILD","",""
"10/13/2019","20:30","219CR0025936","ALL OTHER","ALL OTHER","518 W PARK","",""
"10/13/2019","20:31","219CR0025937","CITIZEN AID","CITIZEN AID","400 S CLARK ST","",""
"10/13/2019","20:41","219CR0025938","CITIZEN AID","CITIZEN AID","1515 OREGON APT","",""
"10/13/2019","20:55","219CR0025939","CIVIL STANDBY","CIVIL STANDBY","2807 SILVER BOW BLVD","",""
"10/13/2019","20:56","219CR0025940","MEDICAL - EMERGENCY","MEDICAL - EMERGENCY","1940 S ARIZONA","",""
"10/13/2019","21:09","219CR0025941","T/S","T/S @ MASSACHUSSETES AND OTTAWA","MASSACHUSSETES AND OTTAWA","",""
"10/13/2019","21:39","219CR0025942","ALARM - FIRE","ALARM - FIRE","610 E PLATINUM","",""
"10/13/2019","21:49","219CR0025943","DISTURBANCE","DISTURBANCE","1124 NEVADA","",""
"10/13/2019","22:20","219CR0025944","JUVENILE MISC","JUVENILE MISC","************","",""
"10/13/2019","23:01","219CR0025945","INTOXICATED PERSON","INTOXICATED PERSON","1124 IOWA","",""
"10/13/2019","23:38","219CR0025946","THEFT","THEFT","1107 CALIFORNIA AVE","",""
"10/13/2019","23:51","219CR0025947","SUSPICIOUS ACTIVITY","SUSPICIOUS ACTIVITY","2100 BLK MEADOWLARK","",""
"10/14/2019","00:40","219CR0025948","SEXUAL ASSAULT","SEXUAL ASSAULT","************","ARREST(s) MADE",""
"10/14/2019","00:49","219CR0025949","SUSPICIOUS ACTIVITY","SUSPICIOUS ACTIVITY","900 BLK S COLORADO","",""
"10/14/2019","01:38","219CR0025950","SUSPICIOUS ACTIVITY","SUSPICIOUS ACTIVITY","MAUDES CANYON TRAIL","",""
"10/14/2019","02:01","219CR0025951","ALARM - BURGLARY","ALARM - BURGLARY","************","",""
"10/14/2019","02:22","219CR0025952","SUSPICIOUS ACTIVITY","SUSPICIOUS ACTIVITY","HARVARD & PINION","",""
"10/14/2019","02:41","219CR0025953","ALL OTHER","ALL OTHER","225 N ALASKA","",""
"10/14/2019","04:21","219CR0025954","SUSPICIOUS ACTIVITY","SUSPICIOUS ACTIVITY","1500 BLK GAYLORD","",""
"10/14/2019","04:28","219CR0025955","SUSPICIOUS ACTIVITY","SUSPICIOUS ACTIVITY","614 W SILVER","",""
"10/14/2019","06:19","219CR0025956","VANDALISM/CRIMINAL MISCHIEF","CRIMINAL MISCHIEF","633 W GALENA","",""
"10/14/2019","06:33","219CR0025957","THEFT","THEFT","1013 OREGON","",""
 

Subcategories

Saturday the 19th. Affiliate Marketing.
Copyright 2012

©